QTR101 OTHH-YMML

Flight info

Callsign QTR101
Flight time 12h 50m
Altitude 33000
Route BUNDU B415 SIXIV N318 TOLDA P570 KITAL L894 BIBGO DCT SABEK DCT 05S080E 11S085E 14S088E 20S095E 25S104E DCT BYLLA DCT 29S117E DCT SEVSI DCT 32S128E DCT KAMBI N640 AD V255 BENDO Y12 ARBEY
Aircraft A35K/H-SDE2E3GHIJ3J4J5LM1ORWXY/LB1D1

Departure

Time 2026-05-07 04:26
Airport Hamad International Airport (OTHH)

Arrival

Time 2026-05-07 17:16
Airport Melbourne Airport (YMML)
Time Latitude Longitude Altitude Speed Heading
2026-05-07 04:21 25.26530 51.61875 35 ft 9 kts 68°
2026-05-07 04:22 25.26554 51.61942 35 ft 10 kts 71°
2026-05-07 04:22 25.26533 51.62027 34 ft 23 kts 136°
2026-05-07 04:22 25.26436 51.62084 34 ft 7 kts 158°
2026-05-07 04:22 25.26377 51.62109 35 ft 16 kts 158°
2026-05-07 04:23 25.26244 51.62167 35 ft 21 kts 158°
2026-05-07 04:23 25.26111 51.62225 35 ft 20 kts 158°
2026-05-07 04:23 25.26024 51.62263 35 ft 20 kts 158°
2026-05-07 04:23 25.25897 51.62318 35 ft 19 kts 158°
2026-05-07 04:24 25.25775 51.62374 35 ft 19 kts 158°
2026-05-07 04:24 25.25655 51.62427 34 ft 18 kts 159°
2026-05-07 04:24 25.25539 51.62480 34 ft 16 kts 145°
2026-05-07 04:24 25.25532 51.62578 33 ft 14 kts 69°
2026-05-07 04:25 25.25587 51.62646 33 ft 8 kts
2026-05-07 04:25 25.25636 51.62635 32 ft 7 kts 341°
2026-05-07 04:25 25.25774 51.62575 32 ft 49 kts 338°
2026-05-07 04:25 25.26301 51.62341 33 ft 112 kts 338°
2026-05-07 04:26 25.27209 51.61944 32 ft 167 kts 338°
2026-05-07 04:26 25.28433 51.61402 123 ft 208 kts 339°
2026-05-07 04:26 25.29867 51.60774 266 ft 230 kts 341°
2026-05-07 04:26 25.31434 51.60423 685 ft 230 kts 358°
2026-05-07 04:27 25.33013 51.60612 1139 ft 228 kts 15°
2026-05-07 04:27 25.34499 51.61215 1582 ft 228 kts 27°
2026-05-07 04:27 25.35786 51.62287 1793 ft 240 kts 47°
2026-05-07 04:27 25.36510 51.64000 1994 ft 257 kts 76°
2026-05-07 04:28 25.36694 51.65995 2304 ft 265 kts 81°
2026-05-07 04:28 25.36793 51.68038 2687 ft 266 kts 82°
2026-05-07 04:28 25.36832 51.70105 3029 ft 274 kts 90°
2026-05-07 04:28 25.36521 51.72208 3359 ft 280 kts 98°
2026-05-07 04:29 25.36089 51.74307 3818 ft 279 kts 100°
2026-05-07 04:29 25.35654 51.76401 4244 ft 280 kts 100°
2026-05-07 04:29 25.35225 51.78501 4656 ft 280 kts 100°
2026-05-07 04:29 25.34800 51.80605 5046 ft 281 kts 100°
2026-05-07 04:30 25.34376 51.82719 5444 ft 282 kts 101°
2026-05-07 04:30 25.33951 51.84845 5803 ft 285 kts 101°
2026-05-07 04:30 25.33526 51.86989 6187 ft 286 kts 100°
2026-05-07 04:30 25.33099 51.89140 6553 ft 288 kts 101°
2026-05-07 04:31 25.32666 51.91305 6923 ft 289 kts 101°
2026-05-07 04:31 25.32237 51.93449 7296 ft 290 kts 101°
2026-05-07 04:31 25.31800 51.95633 7679 ft 292 kts 101°
2026-05-07 04:31 25.31362 51.97825 8062 ft 293 kts 101°
2026-05-07 04:32 25.30922 52.00028 8449 ft 295 kts 102°
2026-05-07 04:32 25.30478 52.02242 8848 ft 295 kts 101°
2026-05-07 04:32 25.30034 52.04460 9249 ft 297 kts 101°
2026-05-07 04:32 25.29586 52.06699 9609 ft 300 kts 101°
2026-05-07 04:33 25.29043 52.08933 9964 ft 303 kts 110°
2026-05-07 04:33 25.28001 52.10997 10142 ft 314 kts 126°
2026-05-07 04:33 25.26644 52.12934 10310 ft 324 kts 128°
2026-05-07 04:33 25.25213 52.14897 10486 ft 333 kts 128°
2026-05-07 04:34 25.23742 52.16922 10646 ft 342 kts 128°
2026-05-07 04:34 25.22239 52.19004 10817 ft 352 kts 128°
2026-05-07 04:34 25.20697 52.21145 10979 ft 360 kts 128°
2026-05-07 04:34 25.19122 52.23336 11140 ft 369 kts 128°
2026-05-07 04:35 25.18961 52.23560 11163 ft 369 kts 128°
2026-05-07 04:35 25.17346 52.25807 11322 ft 377 kts 127°
2026-05-07 04:35 25.15700 52.28100 11477 ft 385 kts 128°
2026-05-07 04:35 25.14023 52.30434 11691 ft 391 kts 128°
2026-05-07 04:36 25.12324 52.32798 11956 ft 395 kts 128°
2026-05-07 04:36 25.10619 52.35177 12318 ft 395 kts 128°
2026-05-07 04:36 25.08909 52.37554 12690 ft 396 kts 128°
2026-05-07 04:36 25.07195 52.39933 13065 ft 397 kts 128°
2026-05-07 04:37 25.05475 52.42321 13405 ft 398 kts 128°
2026-05-07 04:37 25.03754 52.44709 13764 ft 399 kts 128°
2026-05-07 04:37 25.02028 52.47112 14032 ft 401 kts 127°
2026-05-07 04:37 25.00545 52.49716 14264 ft 403 kts 114°
2026-05-07 04:38 24.99462 52.52569 14528 ft 405 kts 110°
2026-05-07 04:38 24.98538 52.55504 14830 ft 406 kts 108°
2026-05-07 04:38 24.97686 52.58480 15107 ft 408 kts 107°
2026-05-07 04:38 24.96853 52.61474 15404 ft 410 kts 107°
2026-05-07 04:39 24.96021 52.64444 15655 ft 412 kts 107°
2026-05-07 04:39 24.95146 52.67507 15915 ft 415 kts 108°
2026-05-07 04:39 24.94298 52.70506 16156 ft 417 kts 106°
2026-05-07 04:39 24.93520 52.73595 16417 ft 420 kts 105°
2026-05-07 04:40 24.92786 52.76719 16682 ft 422 kts 104°
2026-05-07 04:40 24.92063 52.79855 16966 ft 423 kts 105°
2026-05-07 04:40 24.91331 52.83004 17201 ft 426 kts 105°
2026-05-07 04:40 24.90582 52.86172 17436 ft 428 kts 105°
2026-05-07 04:41 24.89819 52.89352 17681 ft 431 kts 105°
2026-05-07 04:41 24.89043 52.92547 17913 ft 433 kts 106°
2026-05-07 04:41 24.88260 52.95755 18141 ft 435 kts 106°
2026-05-07 04:41 24.87469 52.98982 18348 ft 437 kts 106°
2026-05-07 04:42 24.86673 53.02225 18550 ft 439 kts 106°
2026-05-07 04:42 24.85876 53.05476 18800 ft 440 kts 106°
2026-05-07 04:42 24.85078 53.08725 19043 ft 441 kts 106°
2026-05-07 04:42 24.84275 53.11992 19217 ft 443 kts 106°
2026-05-07 04:43 24.83467 53.15276 19405 ft 445 kts 106°
2026-05-07 04:43 24.82655 53.18576 19613 ft 447 kts 106°
2026-05-07 04:43 24.81839 53.21887 19794 ft 449 kts 106°
2026-05-07 04:43 24.81019 53.25214 19986 ft 451 kts 106°
2026-05-07 04:44 24.80195 53.28554 20199 ft 453 kts 106°
2026-05-07 04:44 24.79367 53.31903 20391 ft 455 kts 106°
2026-05-07 04:44 24.78537 53.35267 20592 ft 457 kts 106°
2026-05-07 04:44 24.77701 53.38647 20779 ft 459 kts 106°
2026-05-07 04:45 24.76858 53.42044 20977 ft 461 kts 106°
2026-05-07 04:45 24.76010 53.45452 21163 ft 463 kts 106°
2026-05-07 04:45 24.75156 53.48878 21377 ft 465 kts 106°
2026-05-07 04:45 24.74300 53.52312 21579 ft 467 kts 106°
2026-05-07 04:46 24.73441 53.55758 21806 ft 468 kts 106°
2026-05-07 04:46 24.72577 53.59218 22000 ft 470 kts 106°
2026-05-07 04:46 24.71709 53.62694 22177 ft 472 kts 106°
2026-05-07 04:46 24.70836 53.66187 22374 ft 474 kts 106°
2026-05-07 04:47 24.69959 53.69691 22566 ft 477 kts 106°
2026-05-07 04:47 24.69077 53.73212 22754 ft 479 kts 106°
2026-05-07 04:47 24.68190 53.76747 22970 ft 480 kts 106°
2026-05-07 04:47 24.67303 53.80282 23208 ft 481 kts 106°
2026-05-07 04:48 24.66411 53.83832 23381 ft 483 kts 106°
2026-05-07 04:48 24.65514 53.87396 23540 ft 485 kts 106°
2026-05-07 04:48 24.64611 53.90979 23715 ft 487 kts 107°
2026-05-07 04:48 24.63706 53.94566 23868 ft 488 kts 107°
2026-05-07 04:49 24.62833 53.98178 24033 ft 490 kts 105°
2026-05-07 04:49 24.62018 54.01820 24209 ft 491 kts 104°
2026-05-07 04:49 24.61230 54.05472 24405 ft 492 kts 104°
2026-05-07 04:49 24.60443 54.09139 24548 ft 494 kts 104°
2026-05-07 04:50 24.59647 54.12817 24695 ft 496 kts 104°
2026-05-07 04:50 24.58840 54.16506 24856 ft 497 kts 105°
2026-05-07 04:50 24.58025 54.20199 25010 ft 499 kts 105°
2026-05-07 04:50 24.57200 54.23908 25155 ft 500 kts 105°
2026-05-07 04:51 24.56370 54.27626 25301 ft 502 kts 105°
2026-05-07 04:51 24.55545 54.31306 25446 ft 504 kts 105°
2026-05-07 04:51 24.54707 54.35046 25610 ft 505 kts 105°
2026-05-07 04:51 24.53869 54.38800 25754 ft 507 kts 104°
2026-05-07 04:52 24.53123 54.42485 25917 ft 509 kts 103°
2026-05-07 04:52 24.52421 54.46300 26068 ft 510 kts 102°
2026-05-07 04:52 24.51743 54.50129 26222 ft 512 kts 102°
2026-05-07 04:52 24.50878 54.53920 26349 ft 512 kts 109°
2026-05-07 04:53 24.49803 54.57652 26549 ft 513 kts 110°
2026-05-07 04:53 24.48661 54.61363 26681 ft 514 kts 111°
2026-05-07 04:53 24.47476 54.65072 26825 ft 516 kts 111°
2026-05-07 04:53 24.46270 54.68784 26973 ft 517 kts 111°
2026-05-07 04:54 24.45054 54.72504 27107 ft 519 kts 111°
2026-05-07 04:54 24.43834 54.76238 27265 ft 520 kts 111°
2026-05-07 04:54 24.42611 54.79985 27366 ft 523 kts 111°
2026-05-07 04:54 24.41388 54.83745 27520 ft 524 kts 111°
2026-05-07 04:55 24.40163 54.87514 27678 ft 525 kts 111°
2026-05-07 04:55 24.38936 54.91294 27814 ft 527 kts 111°
2026-05-07 04:55 24.37705 54.95080 27965 ft 528 kts 111°
2026-05-07 04:55 24.36469 54.98880 28143 ft 528 kts 111°
2026-05-07 04:56 24.35235 55.02674 28312 ft 529 kts 111°
2026-05-07 04:56 24.33897 55.06433 28399 ft 530 kts 117°
2026-05-07 04:56 24.32168 55.09994 28511 ft 529 kts 123°
2026-05-07 04:56 24.30261 55.13442 28635 ft 530 kts 124°
2026-05-07 04:57 24.28286 55.16854 28781 ft 530 kts 125°
2026-05-07 04:57 24.26280 55.20241 28953 ft 530 kts 126°
2026-05-07 04:57 24.24263 55.23618 29130 ft 530 kts 126°
2026-05-07 04:57 24.22245 55.26993 29282 ft 530 kts 126°
2026-05-07 04:58 24.20226 55.30377 29414 ft 531 kts 126°
2026-05-07 04:58 24.18292 55.33811 29674 ft 530 kts 120°
2026-05-07 04:58 24.16683 55.37442 29917 ft 530 kts 116°
2026-05-07 04:58 24.15186 55.41133 30045 ft 531 kts 115°
2026-05-07 04:59 24.13735 55.44853 30171 ft 531 kts 115°
2026-05-07 04:59 24.12307 55.48584 30323 ft 531 kts 114°
2026-05-07 04:59 24.10889 55.52311 30472 ft 531 kts 114°
2026-05-07 04:59 24.09467 55.56041 30565 ft 532 kts 115°
2026-05-07 05:00 24.08037 55.59777 30667 ft 532 kts 115°
2026-05-07 05:00 24.06603 55.63504 30815 ft 531 kts 115°
2026-05-07 05:00 24.05136 55.67212 30949 ft 530 kts 117°
2026-05-07 05:00 24.03500 55.70822 31082 ft 529 kts 120°
2026-05-07 05:01 24.01766 55.74367 31224 ft 528 kts 121°
2026-05-07 05:01 24.00028 55.77842 31359 ft 528 kts 121°
2026-05-07 05:01 23.98273 55.81364 31474 ft 528 kts 121°
2026-05-07 05:01 23.96531 55.84899 31559 ft 528 kts 120°
2026-05-07 05:02 23.94806 55.88448 31695 ft 528 kts 120°
2026-05-07 05:02 23.93099 55.91994 31836 ft 527 kts 120°
2026-05-07 05:02 23.91400 55.95543 31954 ft 527 kts 120°
2026-05-07 05:02 23.89702 55.99097 32059 ft 527 kts 120°
2026-05-07 05:03 23.88008 56.02641 32174 ft 527 kts 120°
2026-05-07 05:03 23.86316 56.06188 32308 ft 525 kts 120°
2026-05-07 05:03 23.84629 56.09714 32536 ft 523 kts 120°
2026-05-07 05:03 23.82944 56.13227 32649 ft 522 kts 120°
2026-05-07 05:04 23.79567 56.20249 32755 ft 523 kts 120°
2026-05-07 05:04 23.76181 56.27283 32827 ft 526 kts 120°
2026-05-07 05:05 23.72766 56.34367 32904 ft 528 kts 120°
2026-05-07 05:05 23.69338 56.41473 32950 ft 529 kts 120°
2026-05-07 05:06 23.65911 56.48567 32947 ft 528 kts 120°
2026-05-07 05:06 23.62489 56.55640 32947 ft 527 kts 120°
2026-05-07 05:07 23.59063 56.62710 32948 ft 527 kts 120°
2026-05-07 05:07 23.55633 56.69778 32950 ft 528 kts 120°
2026-05-07 05:08 23.52199 56.76842 32942 ft 528 kts 120°
2026-05-07 05:08 23.48762 56.83902 32955 ft 527 kts 120°
2026-05-07 05:09 23.45354 56.90894 32945 ft 526 kts 120°
2026-05-07 05:09 23.41918 56.97937 32953 ft 526 kts 120°
2026-05-07 05:10 23.38479 57.04971 32955 ft 526 kts 120°
2026-05-07 05:10 23.35109 57.12047 32963 ft 527 kts 118°
2026-05-07 05:11 23.31894 57.19231 32947 ft 528 kts 117°
2026-05-07 05:11 23.28690 57.26405 32965 ft 527 kts 117°
2026-05-07 05:12 23.26006 57.32356 32961 ft 527 kts 118°
2026-05-07 05:12 23.22753 57.39490 32949 ft 527 kts 119°
2026-05-07 05:13 23.18879 57.46223 32970 ft 525 kts 126°
2026-05-07 05:13 23.14658 57.52697 32954 ft 525 kts 128°
2026-05-07 05:14 23.10375 57.59110 32971 ft 524 kts 128°
2026-05-07 05:14 23.06111 57.65517 32955 ft 523 kts 127°
2026-05-07 05:15 23.01855 57.71940 32940 ft 524 kts 127°
2026-05-07 05:15 22.97599 57.78368 32938 ft 524 kts 127°
2026-05-07 05:16 22.93342 57.84791 32926 ft 524 kts 127°
2026-05-07 05:16 22.89086 57.91203 32932 ft 523 kts 127°
2026-05-07 05:17 22.84829 57.97606 32927 ft 524 kts 127°
2026-05-07 05:17 22.80564 58.04014 32921 ft 524 kts 127°
2026-05-07 05:18 22.76293 58.10424 32922 ft 524 kts 127°
2026-05-07 05:18 22.72024 58.16824 32922 ft 524 kts 127°
2026-05-07 05:19 22.67758 58.23211 32925 ft 523 kts 127°
2026-05-07 05:19 22.63486 58.29597 32925 ft 524 kts 127°
2026-05-07 05:20 22.59212 58.35980 32925 ft 524 kts 127°
2026-05-07 05:20 22.54936 58.42357 32924 ft 524 kts 127°
2026-05-07 05:21 22.48518 58.51915 32921 ft 523 kts 127°
2026-05-07 05:22 22.44240 58.58277 32925 ft 523 kts 127°
2026-05-07 05:22 22.39834 58.64461 32927 ft 522 kts 134°
2026-05-07 05:23 22.34405 58.69610 32932 ft 519 kts 144°
2026-05-07 05:23 22.28564 58.74185 32930 ft 519 kts 146°
2026-05-07 05:24 22.22648 58.78653 32928 ft 519 kts 146°
2026-05-07 05:24 22.16753 58.83146 32922 ft 519 kts 146°
2026-05-07 05:25 22.10874 58.87668 32925 ft 519 kts 146°
2026-05-07 05:25 22.05003 58.92193 32925 ft 519 kts 146°
2026-05-07 05:26 21.99131 58.96716 32923 ft 519 kts 146°
2026-05-07 05:26 21.93254 59.01235 32922 ft 519 kts 146°
2026-05-07 05:27 21.87379 59.05746 32915 ft 519 kts 146°
2026-05-07 05:27 21.81491 59.10263 32915 ft 519 kts 146°
2026-05-07 05:28 21.75609 59.14771 32917 ft 519 kts 146°
2026-05-07 05:28 21.69726 59.19275 32911 ft 519 kts 146°
2026-05-07 05:29 21.63844 59.23774 32911 ft 519 kts 146°
2026-05-07 05:29 21.57997 59.28240 32903 ft 519 kts 146°
2026-05-07 05:30 21.52120 59.32726 32911 ft 518 kts 146°
2026-05-07 05:30 21.46239 59.37210 32912 ft 519 kts 146°
2026-05-07 05:31 21.40355 59.41692 32903 ft 519 kts 146°
2026-05-07 05:31 21.34467 59.46172 32906 ft 519 kts 146°
2026-05-07 05:32 21.28583 59.50645 32906 ft 518 kts 146°
2026-05-07 05:32 21.22673 59.55055 32912 ft 517 kts 148°
2026-05-07 05:33 21.16513 59.59011 32911 ft 516 kts 151°
2026-05-07 05:33 21.10289 59.62863 32909 ft 517 kts 151°
2026-05-07 05:34 21.04077 59.66788 32908 ft 519 kts 150°
2026-05-07 05:34 20.97885 59.70761 32910 ft 519 kts 150°
2026-05-07 05:35 20.91709 59.74737 32911 ft 518 kts 150°
2026-05-07 05:35 20.85527 59.78703 32913 ft 518 kts 150°
2026-05-07 05:36 20.79349 59.82657 32912 ft 517 kts 150°
2026-05-07 05:36 20.73180 59.86606 32909 ft 518 kts 150°
2026-05-07 05:37 20.67005 59.90549 32910 ft 517 kts 150°
2026-05-07 05:37 20.60813 59.94506 32917 ft 520 kts 150°
2026-05-07 05:38 20.54616 59.98461 32918 ft 518 kts 150°
2026-05-07 05:38 20.48439 60.02407 32915 ft 518 kts 150°
2026-05-07 05:39 20.42265 60.06334 32913 ft 516 kts 150°
2026-05-07 05:39 20.36093 60.10260 32919 ft 516 kts 150°
2026-05-07 05:40 20.29920 60.14189 32917 ft 518 kts 150°
2026-05-07 05:40 20.23754 60.18109 32918 ft 516 kts 150°
2026-05-07 05:41 20.17589 60.22020 32918 ft 516 kts 150°
2026-05-07 05:41 20.11459 60.25903 32919 ft 515 kts 150°
2026-05-07 05:42 20.05372 60.29931 32920 ft 517 kts 144°
2026-05-07 05:42 19.99868 60.34827 32916 ft 514 kts 139°
2026-05-07 05:43 19.94528 60.39897 32917 ft 515 kts 139°
2026-05-07 05:43 19.89205 60.44996 32922 ft 515 kts 139°
2026-05-07 05:44 19.83869 60.50084 32925 ft 515 kts 139°
2026-05-07 05:44 19.78523 60.55162 32917 ft 516 kts 139°
2026-05-07 05:45 19.73178 60.60227 32922 ft 514 kts 139°
2026-05-07 05:45 19.67848 60.65273 32925 ft 513 kts 139°
2026-05-07 05:46 19.62523 60.70310 32923 ft 513 kts 139°
2026-05-07 05:46 19.57193 60.75348 32928 ft 514 kts 139°
2026-05-07 05:47 19.51848 60.80394 32922 ft 515 kts 139°
2026-05-07 05:47 19.46503 60.85437 32922 ft 514 kts 139°
2026-05-07 05:48 19.41152 60.90481 32925 ft 515 kts 139°
2026-05-07 05:48 19.35794 60.95527 32927 ft 515 kts 139°
2026-05-07 05:49 19.30437 61.00567 32925 ft 515 kts 139°
2026-05-07 05:49 19.25089 61.05594 32927 ft 513 kts 139°
2026-05-07 05:50 19.19737 61.10622 32932 ft 515 kts 139°
2026-05-07 05:50 19.14381 61.15647 32930 ft 515 kts 139°
2026-05-07 05:51 19.09028 61.20665 32929 ft 514 kts 139°
2026-05-07 05:51 19.03671 61.25683 32931 ft 515 kts 139°
2026-05-07 05:52 18.98313 61.30696 32934 ft 513 kts 139°
2026-05-07 05:52 18.93011 61.35653 32934 ft 512 kts 139°
2026-05-07 05:53 18.87662 61.40650 32934 ft 514 kts 139°
2026-05-07 05:53 18.82298 61.45655 32932 ft 515 kts 139°
2026-05-07 05:54 18.76937 61.50655 32930 ft 514 kts 139°
2026-05-07 05:54 18.71589 61.55638 32941 ft 513 kts 139°
2026-05-07 05:55 18.66244 61.60613 32933 ft 513 kts 139°
2026-05-07 05:55 18.60897 61.65584 32939 ft 512 kts 139°
2026-05-07 05:56 18.55553 61.70551 32937 ft 512 kts 139°
2026-05-07 05:56 18.50209 61.75512 32935 ft 512 kts 139°
2026-05-07 05:57 18.44859 61.80474 32930 ft 512 kts 139°
2026-05-07 05:57 18.39515 61.85427 32933 ft 512 kts 139°
2026-05-07 05:58 18.34168 61.90378 32937 ft 512 kts 139°
2026-05-07 05:58 18.28821 61.95326 32935 ft 513 kts 139°
2026-05-07 05:59 18.24367 61.99443 32935 ft 513 kts 139°
2026-05-07 05:59 18.19009 62.04392 32935 ft 512 kts 139°
2026-05-07 06:00 18.13647 62.09342 32938 ft 513 kts 139°
2026-05-07 06:00 18.08270 62.14300 32937 ft 514 kts 139°
2026-05-07 06:01 18.02898 62.19250 32936 ft 513 kts 139°
2026-05-07 06:01 17.97529 62.24193 32936 ft 513 kts 139°
2026-05-07 06:02 17.92147 62.29143 32935 ft 515 kts 139°
2026-05-07 06:02 17.86754 62.34099 32935 ft 515 kts 139°
2026-05-07 06:03 17.81368 62.39046 32935 ft 514 kts 139°
2026-05-07 06:03 17.75982 62.43987 32935 ft 514 kts 139°
2026-05-07 06:04 17.70589 62.48932 32934 ft 515 kts 139°
2026-05-07 06:04 17.65187 62.53880 32936 ft 516 kts 139°
2026-05-07 06:05 17.59786 62.58823 32936 ft 516 kts 139°
2026-05-07 06:05 17.54377 62.63769 32937 ft 517 kts 139°
2026-05-07 06:06 17.48959 62.68720 32931 ft 516 kts 139°
2026-05-07 06:06 17.43542 62.73666 32930 ft 516 kts 139°
2026-05-07 06:07 17.38132 62.78601 32932 ft 516 kts 139°
2026-05-07 06:07 17.32710 62.83543 32933 ft 517 kts 139°
2026-05-07 06:08 17.27285 62.88484 32938 ft 517 kts 139°
2026-05-07 06:08 17.21865 62.93416 32933 ft 516 kts 139°
2026-05-07 06:09 17.16482 62.98312 32928 ft 517 kts 139°
2026-05-07 06:09 17.11054 63.03243 32928 ft 517 kts 139°
2026-05-07 06:10 17.05625 63.08172 32935 ft 517 kts 139°
2026-05-07 06:10 17.00200 63.13092 32929 ft 517 kts 139°
2026-05-07 06:11 16.94694 63.17923 32930 ft 517 kts 140°
2026-05-07 06:11 16.89134 63.22698 32929 ft 517 kts 140°
2026-05-07 06:12 16.83582 63.27480 32932 ft 517 kts 140°
2026-05-07 06:12 16.78042 63.32271 32930 ft 517 kts 140°
2026-05-07 06:13 16.72507 63.37063 32931 ft 518 kts 140°
2026-05-07 06:13 16.66965 63.41859 32927 ft 517 kts 140°
2026-05-07 06:14 16.61424 63.46648 32932 ft 517 kts 140°
2026-05-07 06:14 16.55887 63.51430 32925 ft 517 kts 140°
2026-05-07 06:15 16.50342 63.56214 32929 ft 517 kts 140°
2026-05-07 06:15 16.44798 63.60995 32931 ft 518 kts 140°
2026-05-07 06:16 16.39250 63.65775 32928 ft 518 kts 140°
2026-05-07 06:16 16.33700 63.70554 32925 ft 517 kts 140°
2026-05-07 06:17 16.28152 63.75327 32932 ft 517 kts 140°
2026-05-07 06:17 16.22599 63.80100 32933 ft 518 kts 140°
2026-05-07 06:18 16.17083 63.84838 32928 ft 518 kts 140°
2026-05-07 06:18 16.11526 63.89608 32925 ft 518 kts 140°
2026-05-07 06:19 16.05967 63.94376 32931 ft 518 kts 140°
2026-05-07 06:19 16.00410 63.99138 32935 ft 517 kts 140°
2026-05-07 06:20 15.94858 64.03893 32930 ft 517 kts 140°
2026-05-07 06:20 15.89305 64.08645 32931 ft 518 kts 141°
2026-05-07 06:21 15.83746 64.13400 32931 ft 518 kts 141°
2026-05-07 06:21 15.78184 64.18152 32927 ft 518 kts 141°
2026-05-07 06:22 15.72620 64.22903 32925 ft 517 kts 141°
2026-05-07 06:22 15.64284 64.30015 32924 ft 517 kts 141°
2026-05-07 06:23 15.58726 64.34752 32922 ft 517 kts 141°
2026-05-07 06:23 15.53165 64.39488 32929 ft 517 kts 141°
2026-05-07 06:24 15.47602 64.44224 32921 ft 517 kts 141°
2026-05-07 06:24 15.42038 64.48955 32925 ft 517 kts 141°
2026-05-07 06:25 15.36482 64.53678 32924 ft 517 kts 141°
2026-05-07 06:25 15.30958 64.58369 32924 ft 517 kts 141°
2026-05-07 06:26 15.25396 64.63089 32923 ft 517 kts 141°
2026-05-07 06:26 15.19837 64.67804 32922 ft 517 kts 141°
2026-05-07 06:27 15.14277 64.72516 32921 ft 516 kts 141°
2026-05-07 06:27 15.08716 64.77225 32921 ft 517 kts 141°
2026-05-07 06:28 15.03155 64.81932 32917 ft 516 kts 141°
2026-05-07 06:28 14.97594 64.86635 32919 ft 516 kts 141°
2026-05-07 06:29 14.92034 64.91334 32927 ft 516 kts 141°
2026-05-07 06:29 14.86471 64.96032 32921 ft 516 kts 141°
2026-05-07 06:30 14.80912 65.00723 32918 ft 516 kts 141°
2026-05-07 06:30 14.75351 65.05414 32922 ft 516 kts 141°
2026-05-07 06:31 14.69797 65.10095 32920 ft 516 kts 141°
2026-05-07 06:31 14.64236 65.14779 32917 ft 516 kts 141°
2026-05-07 06:32 14.58668 65.19465 32920 ft 516 kts 141°
2026-05-07 06:32 14.53108 65.24146 32923 ft 516 kts 141°
2026-05-07 06:33 14.47552 65.28809 32916 ft 515 kts 141°
2026-05-07 06:33 14.41990 65.33476 32914 ft 515 kts 141°
2026-05-07 06:34 14.36422 65.38146 32917 ft 516 kts 141°
2026-05-07 06:34 14.30889 65.42785 32913 ft 516 kts 141°
2026-05-07 06:35 14.25321 65.47449 32916 ft 514 kts 141°
2026-05-07 06:35 14.19775 65.52093 32918 ft 514 kts 141°
2026-05-07 06:36 14.14224 65.56737 32914 ft 514 kts 141°
2026-05-07 06:36 14.08669 65.61383 32912 ft 514 kts 141°
2026-05-07 06:37 14.03109 65.66029 32914 ft 515 kts 141°
2026-05-07 06:37 13.97550 65.70670 32915 ft 514 kts 141°
2026-05-07 06:38 13.91992 65.75309 32911 ft 515 kts 141°
2026-05-07 06:38 13.86427 65.79951 32910 ft 516 kts 141°
2026-05-07 06:39 13.80855 65.84594 32916 ft 515 kts 141°
2026-05-07 06:39 13.75289 65.89231 32915 ft 514 kts 141°
2026-05-07 06:40 13.69728 65.93860 32910 ft 514 kts 141°
2026-05-07 06:40 13.64168 65.98485 32909 ft 514 kts 141°
2026-05-07 06:41 13.58612 66.03104 32908 ft 514 kts 141°
2026-05-07 06:41 13.53053 66.07723 32907 ft 513 kts 141°
2026-05-07 06:42 13.47500 66.12335 32908 ft 513 kts 141°
2026-05-07 06:42 13.41951 66.16939 32909 ft 513 kts 141°
2026-05-07 06:43 13.36396 66.21547 32909 ft 513 kts 141°
2026-05-07 06:43 13.30846 66.26146 32905 ft 512 kts 141°
2026-05-07 06:44 13.25298 66.30742 32906 ft 512 kts 141°
2026-05-07 06:44 13.19754 66.35332 32905 ft 512 kts 141°
2026-05-07 06:45 13.14211 66.39918 32909 ft 512 kts 141°
2026-05-07 06:45 13.09601 66.43730 32903 ft 512 kts 141°
2026-05-07 06:46 13.04049 66.48318 32908 ft 511 kts 141°
2026-05-07 06:46 12.98520 66.52884 32903 ft 510 kts 141°
2026-05-07 06:47 12.92995 66.57444 32907 ft 510 kts 141°
2026-05-07 06:47 12.87464 66.62007 32904 ft 511 kts 141°
2026-05-07 06:48 12.81927 66.66573 32914 ft 511 kts 141°
2026-05-07 06:48 12.76385 66.71139 32905 ft 511 kts 141°
2026-05-07 06:49 12.70851 66.75697 32900 ft 510 kts 141°
2026-05-07 06:49 12.65327 66.80244 32904 ft 510 kts 141°
2026-05-07 06:50 12.59797 66.84792 32900 ft 510 kts 141°
2026-05-07 06:50 12.54270 66.89337 32898 ft 509 kts 141°
2026-05-07 06:51 12.48779 66.93848 32895 ft 510 kts 141°
2026-05-07 06:51 12.43213 66.98418 32896 ft 510 kts 141°
2026-05-07 06:52 12.37684 67.02956 32902 ft 510 kts 141°
2026-05-07 06:52 12.32155 67.07492 32897 ft 509 kts 141°
2026-05-07 06:53 12.26625 67.12026 32898 ft 509 kts 141°
2026-05-07 06:53 12.21096 67.16555 32902 ft 509 kts 141°
2026-05-07 06:54 12.15568 67.21083 32893 ft 509 kts 141°
2026-05-07 06:54 12.10072 67.25581 32894 ft 510 kts 141°
2026-05-07 06:55 12.04530 67.30114 32890 ft 510 kts 141°
2026-05-07 06:55 11.98988 67.34646 32890 ft 510 kts 141°
2026-05-07 06:56 11.93445 67.39176 32894 ft 510 kts 141°
2026-05-07 06:56 11.87902 67.43704 32890 ft 510 kts 141°
2026-05-07 06:57 11.82356 67.48232 32889 ft 510 kts 141°
2026-05-07 06:57 11.76812 67.52756 32887 ft 510 kts 141°
2026-05-07 06:58 11.71267 67.57279 32885 ft 511 kts 141°
2026-05-07 06:58 11.65711 67.61809 32891 ft 511 kts 141°
2026-05-07 06:59 11.60150 67.66339 32889 ft 511 kts 141°
2026-05-07 06:59 11.54593 67.70866 32895 ft 511 kts 141°
2026-05-07 07:00 11.49032 67.75391 32892 ft 511 kts 141°
2026-05-07 07:00 11.43476 67.79911 32895 ft 511 kts 141°
2026-05-07 07:01 11.37924 67.84426 32891 ft 511 kts 141°
2026-05-07 07:01 11.32366 67.88943 32893 ft 511 kts 141°
2026-05-07 07:02 11.26811 67.93455 32891 ft 511 kts 141°
2026-05-07 07:02 11.21257 67.97964 32894 ft 511 kts 141°
2026-05-07 07:03 11.15703 68.02470 32890 ft 509 kts 141°
2026-05-07 07:03 11.10166 68.06961 32894 ft 509 kts 141°
2026-05-07 07:04 11.04632 68.11447 32895 ft 508 kts 141°
2026-05-07 07:04 10.99100 68.15929 32898 ft 509 kts 141°
2026-05-07 07:05 10.93562 68.20415 32893 ft 509 kts 141°
2026-05-07 07:05 10.88016 68.24904 32893 ft 510 kts 141°
2026-05-07 07:06 10.82467 68.29393 32890 ft 510 kts 141°
2026-05-07 07:06 10.76916 68.33882 32896 ft 510 kts 141°
2026-05-07 07:07 10.71363 68.38370 32893 ft 510 kts 141°
2026-05-07 07:07 10.65813 68.42854 32895 ft 510 kts 141°
2026-05-07 07:08 10.60262 68.47336 32892 ft 510 kts 141°
2026-05-07 07:08 10.54745 68.51788 32898 ft 510 kts 141°
2026-05-07 07:09 10.49198 68.56263 32890 ft 509 kts 141°
2026-05-07 07:09 10.43651 68.60735 32891 ft 509 kts 141°
2026-05-07 07:10 10.38109 68.65203 32890 ft 509 kts 141°
2026-05-07 07:10 10.32562 68.69671 32891 ft 509 kts 141°
2026-05-07 07:11 10.27016 68.74137 32892 ft 509 kts 141°
2026-05-07 07:11 10.21468 68.78602 32895 ft 509 kts 141°
2026-05-07 07:12 10.15927 68.83060 32888 ft 507 kts 141°
2026-05-07 07:12 10.10399 68.87504 32887 ft 507 kts 141°
2026-05-07 07:13 10.04861 68.91956 32887 ft 508 kts 141°
2026-05-07 07:13 9.99321 68.96407 32889 ft 508 kts 141°
2026-05-07 07:14 9.93772 69.00863 32887 ft 509 kts 141°
2026-05-07 07:14 9.88226 69.05314 32885 ft 508 kts 141°
2026-05-07 07:15 9.82682 69.09762 32889 ft 507 kts 141°
2026-05-07 07:15 9.77148 69.14200 32886 ft 507 kts 141°
2026-05-07 07:16 9.71613 69.18640 32887 ft 508 kts 141°
2026-05-07 07:16 9.66069 69.23080 32889 ft 508 kts 141°
2026-05-07 07:17 9.60512 69.27523 32884 ft 509 kts 141°
2026-05-07 07:17 9.54927 69.31987 32883 ft 514 kts 141°
2026-05-07 07:18 9.49300 69.36484 32884 ft 517 kts 141°
2026-05-07 07:18 9.43643 69.41006 32876 ft 519 kts 141°
2026-05-07 07:19 9.37973 69.45536 32877 ft 520 kts 141°
2026-05-07 07:19 9.32330 69.50042 32877 ft 521 kts 141°
2026-05-07 07:20 9.26640 69.54584 32877 ft 521 kts 141°
2026-05-07 07:20 9.20937 69.59131 32880 ft 522 kts 141°
2026-05-07 07:21 9.15231 69.63683 32876 ft 522 kts 141°
2026-05-07 07:21 9.09521 69.68231 32874 ft 522 kts 140°
2026-05-07 07:22 9.03815 69.72779 32873 ft 522 kts 141°
2026-05-07 07:22 8.98105 69.77326 32870 ft 522 kts 141°
2026-05-07 07:23 8.92393 69.81875 32870 ft 523 kts 141°
2026-05-07 07:23 8.86678 69.86421 32868 ft 523 kts 141°
2026-05-07 07:24 8.80957 69.90972 32867 ft 523 kts 141°
2026-05-07 07:24 8.75236 69.95521 32868 ft 523 kts 141°
2026-05-07 07:25 8.66645 70.02348 32868 ft 524 kts 141°
2026-05-07 07:26 8.60916 70.06898 32864 ft 524 kts 141°
2026-05-07 07:26 8.55224 70.11418 32863 ft 524 kts 141°
2026-05-07 07:27 8.49456 70.15995 32862 ft 524 kts 140°
2026-05-07 07:27 8.43762 70.20512 32860 ft 524 kts 140°
2026-05-07 07:28 8.38028 70.25060 32867 ft 524 kts 140°
2026-05-07 07:28 8.32290 70.29608 32859 ft 524 kts 140°
2026-05-07 07:29 8.26549 70.34158 32860 ft 525 kts 140°
2026-05-07 07:29 8.20808 70.38705 32858 ft 525 kts 141°
2026-05-07 07:30 8.15066 70.43253 32856 ft 525 kts 140°
2026-05-07 07:30 8.09324 70.47798 32857 ft 525 kts 140°
2026-05-07 07:31 8.03580 70.52343 32855 ft 525 kts 141°
2026-05-07 07:31 7.97839 70.56884 32851 ft 524 kts 140°
2026-05-07 07:32 7.92100 70.61422 32851 ft 524 kts 140°
2026-05-07 07:32 7.86361 70.65958 32852 ft 524 kts 141°
2026-05-07 07:33 7.81594 70.69724 32851 ft 524 kts 141°
2026-05-07 07:33 7.75863 70.74252 32851 ft 523 kts 141°
2026-05-07 07:34 7.70128 70.78780 32853 ft 523 kts 141°
2026-05-07 07:34 7.64398 70.83302 32851 ft 523 kts 141°
2026-05-07 07:35 7.58670 70.87822 32851 ft 523 kts 141°
2026-05-07 07:35 7.52946 70.92336 32851 ft 522 kts 141°
2026-05-07 07:36 7.47216 70.96815 32851 ft 521 kts 142°
2026-05-07 07:36 7.41341 71.01106 32852 ft 522 kts 143°
2026-05-07 07:37 7.35475 71.05321 32851 ft 521 kts 143°
2026-05-07 07:37 7.29591 71.09590 32851 ft 521 kts 143°
2026-05-07 07:38 7.23717 71.13880 32853 ft 522 kts 143°
2026-05-07 07:38 7.17842 71.18175 32848 ft 522 kts 143°
2026-05-07 07:39 7.11969 71.22467 32847 ft 521 kts 143°
2026-05-07 07:39 7.06098 71.26756 32847 ft 521 kts 143°
2026-05-07 07:40 7.00226 71.31043 32845 ft 521 kts 143°
2026-05-07 07:40 6.94356 71.35327 32845 ft 521 kts 143°
2026-05-07 07:41 6.88489 71.39607 32846 ft 521 kts 143°
2026-05-07 07:41 6.82618 71.43890 32844 ft 522 kts 143°
2026-05-07 07:42 6.76735 71.48180 32848 ft 523 kts 143°
2026-05-07 07:42 6.70845 71.52473 32848 ft 523 kts 143°
2026-05-07 07:43 6.64941 71.56776 32841 ft 524 kts 143°
2026-05-07 07:43 6.59032 71.61081 32848 ft 525 kts 143°
2026-05-07 07:44 6.53112 71.65392 32849 ft 526 kts 143°
2026-05-07 07:44 6.47185 71.69706 32849 ft 527 kts 143°
2026-05-07 07:45 6.41229 71.74042 32846 ft 529 kts 144°
2026-05-07 07:45 6.35254 71.78389 32846 ft 531 kts 143°
2026-05-07 07:46 6.29263 71.82747 32844 ft 532 kts 143°
2026-05-07 07:46 6.23257 71.87114 32844 ft 533 kts 143°
2026-05-07 07:47 6.17286 71.91455 32850 ft 533 kts 144°
2026-05-07 07:47 6.11295 71.95809 32846 ft 529 kts 143°
2026-05-07 07:48 6.05360 72.00120 32841 ft 526 kts 143°
2026-05-07 07:48 5.99436 72.04424 32842 ft 525 kts 143°
2026-05-07 07:49 5.93521 72.08721 32844 ft 525 kts 143°
2026-05-07 07:49 5.87605 72.13016 32839 ft 524 kts 143°
2026-05-07 07:50 5.81691 72.17308 32840 ft 524 kts 143°
2026-05-07 07:50 5.75786 72.21592 32842 ft 522 kts 143°
2026-05-07 07:51 5.69914 72.25854 32836 ft 521 kts 143°
2026-05-07 07:51 5.64035 72.30118 32840 ft 521 kts 143°
2026-05-07 07:52 5.58156 72.34378 32839 ft 521 kts 143°
2026-05-07 07:52 5.52282 72.38636 32839 ft 521 kts 143°
2026-05-07 07:53 5.46410 72.42891 32840 ft 520 kts 143°
2026-05-07 07:53 5.40544 72.47140 32839 ft 520 kts 143°
2026-05-07 07:54 5.34686 72.51383 32839 ft 519 kts 143°
2026-05-07 07:54 5.28830 72.55624 32837 ft 519 kts 143°
2026-05-07 07:55 5.22978 72.59860 32841 ft 519 kts 143°
2026-05-07 07:55 5.17122 72.64099 32841 ft 519 kts 143°
2026-05-07 07:56 5.11297 72.68315 32837 ft 520 kts 143°
2026-05-07 07:56 5.05396 72.72583 32837 ft 518 kts 143°
2026-05-07 07:57 4.99598 72.76776 32838 ft 517 kts 143°
2026-05-07 07:57 4.93773 72.80988 32840 ft 516 kts 143°
2026-05-07 07:58 4.87952 72.85197 32837 ft 516 kts 143°
2026-05-07 07:58 4.82132 72.89405 32837 ft 516 kts 143°
2026-05-07 07:59 4.76311 72.93611 32840 ft 516 kts 143°
2026-05-07 07:59 4.70488 72.97818 32837 ft 516 kts 143°
2026-05-07 08:00 4.64661 73.02027 32835 ft 517 kts 143°
2026-05-07 08:00 4.58826 73.06240 32838 ft 517 kts 143°
2026-05-07 08:01 4.52993 73.10452 32833 ft 517 kts 143°
2026-05-07 08:01 4.47153 73.14668 32832 ft 517 kts 143°
2026-05-07 08:02 4.41316 73.18881 32831 ft 517 kts 143°
2026-05-07 08:02 4.35478 73.23093 32834 ft 517 kts 143°
2026-05-07 08:03 4.29638 73.27307 32834 ft 518 kts 143°
2026-05-07 08:03 4.23792 73.31524 32836 ft 517 kts 143°
2026-05-07 08:04 4.17953 73.35735 32850 ft 517 kts 143°
2026-05-07 08:04 4.12113 73.39946 32851 ft 518 kts 143°
2026-05-07 08:05 4.06265 73.44162 32857 ft 518 kts 143°
2026-05-07 08:05 4.00426 73.48370 32846 ft 517 kts 143°
2026-05-07 08:06 3.94592 73.52575 32840 ft 516 kts 143°
2026-05-07 08:06 3.88757 73.56780 32836 ft 517 kts 143°
2026-05-07 08:07 3.82957 73.60958 32829 ft 517 kts 143°
2026-05-07 08:07 3.77118 73.65163 32829 ft 517 kts 143°
2026-05-07 08:08 3.71284 73.69365 32831 ft 516 kts 143°
2026-05-07 08:08 3.65459 73.73559 32829 ft 515 kts 143°
2026-05-07 08:09 3.59648 73.77743 32832 ft 514 kts 143°
2026-05-07 08:09 3.53844 73.81920 32829 ft 514 kts 143°
2026-05-07 08:10 3.48039 73.86098 32829 ft 514 kts 143°
2026-05-07 08:10 3.42233 73.90276 32829 ft 514 kts 143°
2026-05-07 08:11 3.36428 73.94453 32830 ft 514 kts 143°
2026-05-07 08:11 3.30619 73.98631 32831 ft 514 kts 143°
2026-05-07 08:12 3.24816 74.02806 32831 ft 514 kts 143°
2026-05-07 08:12 3.19009 74.06981 32831 ft 514 kts 143°
2026-05-07 08:13 3.13201 74.11158 32831 ft 514 kts 143°
2026-05-07 08:13 3.07385 74.15339 32829 ft 515 kts 143°
2026-05-07 08:14 3.01569 74.19520 32830 ft 515 kts 143°
2026-05-07 08:14 2.95792 74.23673 32829 ft 515 kts 143°
2026-05-07 08:15 2.89975 74.27853 32829 ft 515 kts 143°
2026-05-07 08:15 2.84115 74.32063 32828 ft 515 kts 143°
2026-05-07 08:16 2.78333 74.36218 32828 ft 515 kts 143°
2026-05-07 08:16 2.72515 74.40398 32828 ft 515 kts 143°
2026-05-07 08:17 2.66700 74.44575 32829 ft 514 kts 143°
2026-05-07 08:17 2.60885 74.48751 32826 ft 515 kts 143°
2026-05-07 08:18 2.55067 74.52929 32823 ft 515 kts 143°
2026-05-07 08:18 2.49244 74.57111 32823 ft 515 kts 143°
2026-05-07 08:19 2.43421 74.61292 32824 ft 515 kts 143°
2026-05-07 08:19 2.37603 74.65469 32823 ft 515 kts 143°
2026-05-07 08:20 2.31779 74.69650 32820 ft 515 kts 143°
2026-05-07 08:20 2.25956 74.73829 32820 ft 515 kts 143°
2026-05-07 08:21 2.21116 74.77302 32826 ft 515 kts 143°
2026-05-07 08:21 2.15296 74.81479 32823 ft 515 kts 143°
2026-05-07 08:22 2.09472 74.85658 32823 ft 515 kts 143°
2026-05-07 08:22 2.03647 74.89838 32824 ft 515 kts 143°
2026-05-07 08:23 1.97822 74.94017 32821 ft 515 kts 143°
2026-05-07 08:23 1.91997 74.98195 32821 ft 515 kts 143°
2026-05-07 08:24 1.86171 75.02374 32820 ft 515 kts 143°
2026-05-07 08:24 1.80342 75.06555 32821 ft 517 kts 143°
2026-05-07 08:25 1.74494 75.10750 32821 ft 518 kts 143°
2026-05-07 08:25 1.68643 75.14945 32822 ft 518 kts 143°
2026-05-07 08:26 1.59866 75.21239 32820 ft 518 kts 143°
2026-05-07 08:26 1.54012 75.25436 32821 ft 517 kts 143°
2026-05-07 08:27 1.48166 75.29627 32819 ft 517 kts 143°
2026-05-07 08:27 1.42306 75.33829 32821 ft 519 kts 143°
2026-05-07 08:28 1.36431 75.38041 32818 ft 520 kts 143°
2026-05-07 08:28 1.30558 75.42250 32818 ft 519 kts 143°
2026-05-07 08:29 1.24728 75.46429 32818 ft 520 kts 143°
2026-05-07 08:29 1.18849 75.50643 32815 ft 520 kts 143°
2026-05-07 08:30 1.12970 75.54857 32818 ft 520 kts 143°
2026-05-07 08:30 1.07088 75.59072 32818 ft 521 kts 144°
2026-05-07 08:31 1.01187 75.63300 32818 ft 522 kts 144°
2026-05-07 08:31 0.95276 75.67537 32818 ft 523 kts 144°
2026-05-07 08:32 0.89363 75.71773 32815 ft 523 kts 144°
2026-05-07 08:32 0.83447 75.76012 32812 ft 523 kts 144°
2026-05-07 08:33 0.77535 75.80247 32815 ft 522 kts 143°
2026-05-07 08:33 0.71633 75.84475 32815 ft 522 kts 143°
2026-05-07 08:34 0.65737 75.88701 32815 ft 521 kts 143°
2026-05-07 08:34 0.59844 75.92923 32812 ft 521 kts 143°
2026-05-07 08:35 0.53946 75.97148 32810 ft 521 kts 143°
2026-05-07 08:35 0.48051 76.01372 32810 ft 521 kts 143°
2026-05-07 08:36 0.42154 76.05596 32810 ft 521 kts 143°
2026-05-07 08:36 0.36255 76.09822 32809 ft 522 kts 143°
2026-05-07 08:37 0.30359 76.14045 32810 ft 522 kts 143°
2026-05-07 08:37 0.24456 76.18274 32810 ft 522 kts 143°
2026-05-07 08:38 0.18550 76.22505 32807 ft 523 kts 143°
2026-05-07 08:38 0.12644 76.26736 32807 ft 523 kts 143°
2026-05-07 08:39 0.06771 76.30943 32810 ft 523 kts 143°
2026-05-07 08:39 0.00859 76.35177 32813 ft 523 kts 143°
2026-05-07 08:40 -0.05089 76.39438 32807 ft 523 kts 143°
2026-05-07 08:40 -0.10964 76.43646 32807 ft 523 kts 143°
2026-05-07 08:41 -0.16875 76.47881 32810 ft 523 kts 143°
2026-05-07 08:41 -0.22787 76.52116 32810 ft 522 kts 143°
2026-05-07 08:42 -0.28690 76.56344 32807 ft 522 kts 143°
2026-05-07 08:42 -0.34589 76.60570 32807 ft 522 kts 143°
2026-05-07 08:43 -0.40483 76.64793 32807 ft 521 kts 144°
2026-05-07 08:43 -0.46379 76.69016 32807 ft 521 kts 144°
2026-05-07 08:44 -0.52273 76.73238 32807 ft 521 kts 144°
2026-05-07 08:44 -0.58162 76.77457 32807 ft 521 kts 144°
2026-05-07 08:45 -0.64053 76.81677 32804 ft 521 kts 143°
2026-05-07 08:45 -0.69944 76.85897 32804 ft 521 kts 144°
2026-05-07 08:46 -0.75836 76.90119 32806 ft 521 kts 144°
2026-05-07 08:46 -0.81722 76.94336 32804 ft 521 kts 144°
2026-05-07 08:47 -0.87610 76.98554 32804 ft 521 kts 144°
2026-05-07 08:47 -0.93494 77.02770 32804 ft 520 kts 144°
2026-05-07 08:48 -0.99376 77.06985 32804 ft 520 kts 143°
2026-05-07 08:48 -1.05249 77.11194 32804 ft 519 kts 143°
2026-05-07 08:49 -1.11112 77.15397 32801 ft 518 kts 143°
2026-05-07 08:49 -1.16969 77.19593 32801 ft 519 kts 143°
2026-05-07 08:50 -1.22846 77.23803 32800 ft 520 kts 143°
2026-05-07 08:50 -1.28728 77.28022 32802 ft 520 kts 143°
2026-05-07 08:51 -1.34598 77.32231 32802 ft 519 kts 143°
2026-05-07 08:51 -1.40462 77.36435 32801 ft 519 kts 143°
2026-05-07 08:52 -1.46339 77.40645 32802 ft 520 kts 143°
2026-05-07 08:52 -1.52175 77.44831 32801 ft 521 kts 143°
2026-05-07 08:53 -1.58078 77.49065 32802 ft 523 kts 144°
2026-05-07 08:53 -1.63994 77.53305 32802 ft 524 kts 144°
2026-05-07 08:54 -1.69919 77.57553 32801 ft 524 kts 144°
2026-05-07 08:54 -1.75848 77.61805 32802 ft 524 kts 144°
2026-05-07 08:55 -1.81773 77.66053 32799 ft 524 kts 143°
2026-05-07 08:55 -1.87694 77.70301 32797 ft 524 kts 144°
2026-05-07 08:56 -1.93632 77.74561 32802 ft 526 kts 144°
2026-05-07 08:56 -1.99582 77.78829 32802 ft 527 kts 144°
2026-05-07 08:57 -2.05541 77.83104 32801 ft 527 kts 144°
2026-05-07 08:57 -2.11498 77.87378 32801 ft 527 kts 144°
2026-05-07 08:58 -2.17302 77.91850 32801 ft 527 kts 136°
2026-05-07 08:58 -2.22395 77.97109 32801 ft 526 kts 132°
2026-05-07 08:59 -2.27286 78.02557 32801 ft 528 kts 131°
2026-05-07 08:59 -2.32133 78.08018 32802 ft 529 kts 131°
2026-05-07 09:00 -2.37020 78.13495 32801 ft 522 kts 131°
2026-05-07 09:00 -2.41830 78.18861 32803 ft 515 kts 131°
2026-05-07 09:01 -2.46621 78.24202 32801 ft 516 kts 131°
2026-05-07 09:01 -2.51409 78.29539 32801 ft 515 kts 131°
2026-05-07 09:02 -2.56192 78.34872 32802 ft 515 kts 131°
2026-05-07 09:02 -2.60966 78.40197 32801 ft 514 kts 131°
2026-05-07 09:03 -2.65745 78.45529 32798 ft 514 kts 131°
2026-05-07 09:03 -2.70520 78.50856 32799 ft 515 kts 131°
2026-05-07 09:04 -2.75296 78.56185 32801 ft 514 kts 131°
2026-05-07 09:04 -2.80068 78.61510 32801 ft 514 kts 131°
2026-05-07 09:05 -2.84835 78.66830 32799 ft 513 kts 131°
2026-05-07 09:05 -2.89609 78.72159 32799 ft 515 kts 131°
2026-05-07 09:06 -2.94400 78.77507 32798 ft 517 kts 131°
2026-05-07 09:06 -2.99203 78.82870 32799 ft 517 kts 131°
2026-05-07 09:07 -3.03999 78.88229 32796 ft 518 kts 132°
2026-05-07 09:07 -3.08797 78.93585 32796 ft 516 kts 132°
2026-05-07 09:08 -3.13557 78.98902 32793 ft 518 kts 132°
2026-05-07 09:08 -3.18358 79.04266 32794 ft 518 kts 132°
2026-05-07 09:09 -3.23175 79.09646 32796 ft 521 kts 131°
2026-05-07 09:09 -3.28011 79.15051 32796 ft 521 kts 131°
2026-05-07 09:10 -3.32064 79.19582 32797 ft 521 kts 131°
2026-05-07 09:10 -3.36891 79.24978 32795 ft 520 kts 131°
2026-05-07 09:11 -3.41727 79.30385 32791 ft 521 kts 131°
2026-05-07 09:11 -3.46570 79.35800 32794 ft 524 kts 131°
2026-05-07 09:12 -3.51392 79.41193 32794 ft 522 kts 131°
2026-05-07 09:12 -3.56229 79.46604 32795 ft 522 kts 132°
2026-05-07 09:13 -3.61057 79.52003 32790 ft 520 kts 132°
2026-05-07 09:13 -3.65882 79.57403 32792 ft 522 kts 132°
2026-05-07 09:14 -3.70715 79.62812 32793 ft 521 kts 132°
2026-05-07 09:14 -3.75563 79.68237 32783 ft 524 kts 132°
2026-05-07 09:15 -3.80425 79.73680 32787 ft 525 kts 132°
2026-05-07 09:15 -3.85292 79.79132 32787 ft 524 kts 132°
2026-05-07 09:16 -3.90139 79.84560 32789 ft 523 kts 131°
2026-05-07 09:16 -3.95003 79.90009 32788 ft 525 kts 131°
2026-05-07 09:17 -3.99875 79.95467 32786 ft 526 kts 131°
2026-05-07 09:17 -4.04750 80.00930 32786 ft 526 kts 131°
2026-05-07 09:18 -4.09616 80.06383 32786 ft 526 kts 131°
2026-05-07 09:18 -4.14479 80.11834 32783 ft 523 kts 131°
2026-05-07 09:19 -4.19299 80.17240 32782 ft 520 kts 131°
2026-05-07 09:19 -4.24112 80.22639 32781 ft 519 kts 132°
2026-05-07 09:20 -4.28931 80.28044 32785 ft 521 kts 131°
2026-05-07 09:20 -4.33752 80.33451 32779 ft 519 kts 131°
2026-05-07 09:21 -4.38531 80.38814 32782 ft 519 kts 131°
2026-05-07 09:21 -4.43330 80.44201 32783 ft 518 kts 131°
2026-05-07 09:22 -4.48134 80.49595 32781 ft 520 kts 131°
2026-05-07 09:22 -4.52938 80.54989 32782 ft 519 kts 131°
2026-05-07 09:23 -4.57747 80.60391 32777 ft 519 kts 131°
2026-05-07 09:23 -4.62541 80.65778 32776 ft 517 kts 131°
2026-05-07 09:24 -4.67331 80.71160 32779 ft 517 kts 131°
2026-05-07 09:24 -4.72107 80.76527 32776 ft 516 kts 131°
2026-05-07 09:25 -4.76892 80.81907 32777 ft 517 kts 131°
2026-05-07 09:25 -4.81680 80.87290 32777 ft 518 kts 131°
2026-05-07 09:26 -4.86466 80.92673 32776 ft 514 kts 132°
2026-05-07 09:26 -4.91200 80.97998 32777 ft 509 kts 132°
2026-05-07 09:27 -4.95922 81.03312 32778 ft 513 kts 131°
2026-05-07 09:28 -5.03049 81.11332 32776 ft 515 kts 132°
2026-05-07 09:28 -5.07811 81.16694 32777 ft 515 kts 132°
2026-05-07 09:29 -5.12577 81.22061 32777 ft 516 kts 132°
2026-05-07 09:29 -5.17346 81.27432 32776 ft 515 kts 131°
2026-05-07 09:30 -5.22109 81.32799 32777 ft 515 kts 132°
2026-05-07 09:30 -5.26866 81.38159 32777 ft 515 kts 132°
2026-05-07 09:31 -5.31578 81.43472 32775 ft 511 kts 132°
2026-05-07 09:31 -5.36292 81.48786 32774 ft 510 kts 132°
2026-05-07 09:32 -5.41003 81.54099 32774 ft 509 kts 132°
2026-05-07 09:32 -5.45711 81.59409 32774 ft 509 kts 132°
2026-05-07 09:33 -5.50421 81.64723 32774 ft 509 kts 132°
2026-05-07 09:33 -5.55129 81.70037 32774 ft 509 kts 132°
2026-05-07 09:34 -5.59833 81.75348 32774 ft 509 kts 133°
2026-05-07 09:34 -5.64536 81.80658 32774 ft 509 kts 132°
2026-05-07 09:35 -5.69242 81.85974 32772 ft 510 kts 132°
2026-05-07 09:35 -5.73954 81.91298 32771 ft 510 kts 132°
2026-05-07 09:36 -5.78667 81.96624 32774 ft 510 kts 132°
2026-05-07 09:36 -5.83376 82.01948 32774 ft 510 kts 132°
2026-05-07 09:37 -5.88090 82.07278 32772 ft 510 kts 132°
2026-05-07 09:37 -5.92768 82.12570 32771 ft 510 kts 132°
2026-05-07 09:38 -5.97477 82.17898 32770 ft 510 kts 132°
2026-05-07 09:38 -6.02186 82.23226 32771 ft 510 kts 132°
2026-05-07 09:39 -6.06894 82.28557 32771 ft 510 kts 132°
2026-05-07 09:39 -6.11602 82.33887 32771 ft 510 kts 132°
2026-05-07 09:40 -6.16311 82.39221 32777 ft 510 kts 132°
2026-05-07 09:40 -6.21020 82.44559 32771 ft 511 kts 133°
2026-05-07 09:41 -6.25740 82.49908 32771 ft 511 kts 133°
2026-05-07 09:41 -6.30461 82.55260 32771 ft 512 kts 133°
2026-05-07 09:42 -6.35182 82.60612 32768 ft 512 kts 132°
2026-05-07 09:42 -6.39904 82.65969 32768 ft 512 kts 133°
2026-05-07 09:43 -6.44631 82.71332 32769 ft 514 kts 132°
2026-05-07 09:43 -6.47991 82.75146 32768 ft 515 kts 132°
2026-05-07 09:44 -6.52748 82.80547 32769 ft 517 kts 132°
2026-05-07 09:44 -6.57528 82.85975 32771 ft 519 kts 132°
2026-05-07 09:45 -6.62317 82.91416 32771 ft 519 kts 132°
2026-05-07 09:45 -6.67107 82.96859 32769 ft 519 kts 132°
2026-05-07 09:46 -6.71894 83.02301 32772 ft 520 kts 132°
2026-05-07 09:46 -6.76650 83.07708 32772 ft 519 kts 132°
2026-05-07 09:47 -6.81427 83.13141 32770 ft 518 kts 131°
2026-05-07 09:47 -6.86201 83.18573 32772 ft 518 kts 131°
2026-05-07 09:48 -6.90976 83.24009 32770 ft 519 kts 131°
2026-05-07 09:48 -6.95769 83.29466 32772 ft 521 kts 131°
2026-05-07 09:49 -7.00560 83.34923 32771 ft 519 kts 131°
2026-05-07 09:49 -7.05340 83.40369 32772 ft 520 kts 131°
2026-05-07 09:50 -7.10121 83.45817 32772 ft 518 kts 131°
2026-05-07 09:50 -7.14891 83.51256 32770 ft 518 kts 131°
2026-05-07 09:51 -7.19670 83.56706 32773 ft 520 kts 131°
2026-05-07 09:51 -7.24454 83.62165 32774 ft 520 kts 131°
2026-05-07 09:52 -7.29239 83.67627 32771 ft 520 kts 131°
2026-05-07 09:52 -7.34026 83.73092 32771 ft 520 kts 131°
2026-05-07 09:53 -7.38809 83.78555 32775 ft 520 kts 131°
2026-05-07 09:53 -7.43591 83.84018 32774 ft 519 kts 131°
2026-05-07 09:54 -7.48368 83.89479 32771 ft 520 kts 131°
2026-05-07 09:54 -7.53153 83.94948 32771 ft 521 kts 131°
2026-05-07 09:55 -7.57949 84.00432 32774 ft 521 kts 130°
2026-05-07 09:55 -7.62736 84.05910 32774 ft 520 kts 130°
2026-05-07 09:56 -7.67520 84.11388 32779 ft 520 kts 130°
2026-05-07 09:56 -7.71496 84.15941 32779 ft 520 kts 130°
2026-05-07 09:57 -7.76279 84.21419 32780 ft 520 kts 130°
2026-05-07 09:57 -7.81060 84.26896 32779 ft 520 kts 130°
2026-05-07 09:58 -7.85839 84.32373 32779 ft 519 kts 130°
2026-05-07 09:58 -7.90600 84.37833 32782 ft 518 kts 130°
2026-05-07 09:59 -7.95356 84.43289 32783 ft 518 kts 129°
2026-05-07 09:59 -8.00103 84.48736 32782 ft 516 kts 129°
2026-05-07 10:00 -8.04840 84.54174 32785 ft 516 kts 129°
2026-05-07 10:00 -8.09575 84.59612 32788 ft 516 kts 130°
2026-05-07 10:01 -8.14308 84.65050 32787 ft 516 kts 130°
2026-05-07 10:01 -8.19043 84.70492 32788 ft 517 kts 129°
2026-05-07 10:02 -8.23755 84.75909 32788 ft 517 kts 130°
2026-05-07 10:02 -8.28502 84.81369 32788 ft 517 kts 129°
2026-05-07 10:03 -8.33248 84.86830 32791 ft 518 kts 129°
2026-05-07 10:03 -8.38005 84.92307 32791 ft 518 kts 130°
2026-05-07 10:04 -8.42756 84.97777 32789 ft 518 kts 130°
2026-05-07 10:04 -8.47506 85.03250 32790 ft 517 kts 130°
2026-05-07 10:05 -8.52250 85.08716 32790 ft 518 kts 129°
2026-05-07 10:05 -8.57000 85.14193 32793 ft 519 kts 129°
2026-05-07 10:06 -8.61755 85.19680 32796 ft 519 kts 129°
2026-05-07 10:06 -8.66512 85.25168 32796 ft 519 kts 129°
2026-05-07 10:07 -8.71269 85.30660 32796 ft 520 kts 129°
2026-05-07 10:07 -8.76031 85.36161 32796 ft 519 kts 130°
2026-05-07 10:08 -8.80784 85.41653 32797 ft 520 kts 130°
2026-05-07 10:08 -8.85545 85.47156 32796 ft 520 kts 129°
2026-05-07 10:09 -8.90311 85.52665 32798 ft 520 kts 129°
2026-05-07 10:09 -8.95079 85.58180 32802 ft 521 kts 129°
2026-05-07 10:10 -8.99849 85.63702 32801 ft 521 kts 129°
2026-05-07 10:10 -9.04622 85.69228 32802 ft 522 kts 129°
2026-05-07 10:11 -9.09401 85.74764 32805 ft 522 kts 129°
2026-05-07 10:11 -9.14178 85.80301 32804 ft 522 kts 129°
2026-05-07 10:12 -9.18951 85.85834 32801 ft 523 kts 129°
2026-05-07 10:12 -9.23723 85.91371 32804 ft 521 kts 129°
2026-05-07 10:13 -9.28496 85.96910 32804 ft 521 kts 129°
2026-05-07 10:13 -9.33263 86.02443 32804 ft 522 kts 129°
2026-05-07 10:14 -9.38036 86.07988 32807 ft 522 kts 129°
2026-05-07 10:14 -9.42775 86.13494 32807 ft 522 kts 129°
2026-05-07 10:15 -9.47545 86.19039 32806 ft 521 kts 129°
2026-05-07 10:15 -9.52297 86.24568 32815 ft 520 kts 129°
2026-05-07 10:16 -9.57044 86.30091 32812 ft 520 kts 129°
2026-05-07 10:16 -9.61788 86.35615 32815 ft 519 kts 129°
2026-05-07 10:17 -9.66525 86.41132 32815 ft 519 kts 129°
2026-05-07 10:17 -9.71263 86.46652 32817 ft 519 kts 129°
2026-05-07 10:18 -9.76006 86.52182 32821 ft 520 kts 129°
2026-05-07 10:18 -9.80745 86.57710 32819 ft 520 kts 129°
2026-05-07 10:19 -9.85496 86.63255 32818 ft 521 kts 129°
2026-05-07 10:19 -9.90259 86.68815 32824 ft 523 kts 129°
2026-05-07 10:20 -9.95016 86.74371 32823 ft 521 kts 129°
2026-05-07 10:20 -9.99769 86.79925 32827 ft 522 kts 129°
2026-05-07 10:21 -10.04520 86.85480 32823 ft 520 kts 130°
2026-05-07 10:21 -10.09253 86.91017 32823 ft 519 kts 130°
2026-05-07 10:22 -10.13990 86.96561 32826 ft 521 kts 129°
2026-05-07 10:22 -10.18751 87.02136 32828 ft 522 kts 130°
2026-05-07 10:23 -10.23495 87.07692 32827 ft 520 kts 129°
2026-05-07 10:23 -10.28233 87.13246 32833 ft 521 kts 130°
2026-05-07 10:24 -10.32969 87.18799 32832 ft 520 kts 130°
2026-05-07 10:24 -10.37692 87.24341 32831 ft 518 kts 129°
2026-05-07 10:25 -10.42414 87.29884 32836 ft 520 kts 130°
2026-05-07 10:25 -10.47103 87.35391 32835 ft 519 kts 130°
2026-05-07 10:26 -10.51824 87.40938 32838 ft 519 kts 130°
2026-05-07 10:26 -10.56541 87.46483 32835 ft 520 kts 130°
2026-05-07 10:27 -10.61268 87.52044 32838 ft 518 kts 130°
2026-05-07 10:27 -10.65973 87.57581 32841 ft 518 kts 130°
2026-05-07 10:28 -10.70688 87.63132 32840 ft 519 kts 130°
2026-05-07 10:28 -10.75413 87.68697 32844 ft 520 kts 130°
2026-05-07 10:29 -10.80126 87.74253 32840 ft 518 kts 130°
2026-05-07 10:29 -10.84848 87.79822 32844 ft 522 kts 130°
2026-05-07 10:30 -10.91944 87.88196 32846 ft 519 kts 130°
2026-05-07 10:30 -10.96660 87.93764 32846 ft 521 kts 130°
2026-05-07 10:31 -11.01385 87.99346 32847 ft 521 kts 130°
2026-05-07 10:31 -11.06120 88.04944 32843 ft 521 kts 130°
2026-05-07 10:32 -11.10843 88.10530 32845 ft 522 kts 130°
2026-05-07 10:32 -11.15559 88.16112 32845 ft 523 kts 130°
2026-05-07 10:33 -11.20315 88.21742 32845 ft 526 kts 130°
2026-05-07 10:33 -11.25077 88.27384 32845 ft 523 kts 130°
2026-05-07 10:34 -11.29814 88.32999 32848 ft 524 kts 130°
2026-05-07 10:34 -11.34554 88.38621 32851 ft 521 kts 130°
2026-05-07 10:35 -11.39258 88.44204 32851 ft 518 kts 130°
2026-05-07 10:35 -11.43944 88.49770 32849 ft 518 kts 130°
2026-05-07 10:36 -11.48648 88.55359 32854 ft 520 kts 130°
2026-05-07 10:36 -11.53361 88.60959 32852 ft 520 kts 130°
2026-05-07 10:37 -11.58062 88.66550 32850 ft 520 kts 130°
2026-05-07 10:37 -11.62782 88.72167 32854 ft 522 kts 130°
2026-05-07 10:38 -11.67502 88.77786 32854 ft 521 kts 130°
2026-05-07 10:38 -11.72225 88.83413 32853 ft 522 kts 130°
2026-05-07 10:39 -11.76916 88.89006 32857 ft 524 kts 130°
2026-05-07 10:39 -11.81710 88.94723 32858 ft 525 kts 130°
2026-05-07 10:40 -11.86422 89.00347 32863 ft 525 kts 130°
2026-05-07 10:40 -11.91157 89.06001 32862 ft 522 kts 130°
2026-05-07 10:41 -11.95876 89.11641 32865 ft 525 kts 130°
2026-05-07 10:41 -12.00639 89.17334 32860 ft 527 kts 130°
2026-05-07 10:42 -12.05379 89.23003 32868 ft 525 kts 130°
2026-05-07 10:42 -12.10138 89.28700 32867 ft 530 kts 130°
2026-05-07 10:43 -12.14931 89.34441 32868 ft 532 kts 130°
2026-05-07 10:43 -12.19726 89.40188 32869 ft 530 kts 130°
2026-05-07 10:44 -12.24495 89.45906 32869 ft 527 kts 130°
2026-05-07 10:44 -12.29261 89.51625 32871 ft 530 kts 130°
2026-05-07 10:45 -12.34002 89.57317 32876 ft 528 kts 130°
2026-05-07 10:45 -12.37981 89.62096 32875 ft 526 kts 130°
2026-05-07 10:46 -12.43496 89.68725 32877 ft 528 kts 130°
2026-05-07 10:46 -12.48255 89.74449 32877 ft 528 kts 129°
2026-05-07 10:47 -12.52254 89.79262 32879 ft 531 kts 130°
2026-05-07 10:47 -12.57021 89.85002 32877 ft 528 kts 129°
2026-05-07 10:48 -12.61785 89.90744 32880 ft 530 kts 129°
2026-05-07 10:48 -12.66560 89.96501 32880 ft 531 kts 129°
2026-05-07 10:49 -12.71307 90.02229 32882 ft 532 kts 129°
2026-05-07 10:49 -12.76088 90.08000 32880 ft 529 kts 130°
2026-05-07 10:50 -12.80853 90.13755 32887 ft 532 kts 130°
2026-05-07 10:50 -12.85647 90.19550 32886 ft 533 kts 130°
2026-05-07 10:51 -12.90443 90.25352 32886 ft 533 kts 130°
2026-05-07 10:51 -12.95227 90.31142 32888 ft 532 kts 130°
2026-05-07 10:52 -13.00005 90.36928 32892 ft 532 kts 130°
2026-05-07 10:52 -13.04793 90.42732 32893 ft 534 kts 130°
2026-05-07 10:53 -13.09593 90.48553 32899 ft 534 kts 130°
2026-05-07 10:53 -13.14383 90.54366 32896 ft 533 kts 130°
2026-05-07 10:54 -13.19183 90.60196 32897 ft 536 kts 130°
2026-05-07 10:54 -13.23995 90.66043 32903 ft 536 kts 130°
2026-05-07 10:55 -13.28802 90.71888 32902 ft 536 kts 130°
2026-05-07 10:55 -13.33609 90.77738 32902 ft 535 kts 130°
2026-05-07 10:56 -13.38398 90.83569 32904 ft 533 kts 131°
2026-05-07 10:56 -13.43187 90.89404 32907 ft 535 kts 131°
2026-05-07 10:57 -13.47973 90.95239 32908 ft 533 kts 130°
2026-05-07 10:57 -13.52752 91.01069 32909 ft 533 kts 130°
2026-05-07 10:58 -13.57523 91.06894 32908 ft 532 kts 130°
2026-05-07 10:58 -13.62284 91.12712 32908 ft 532 kts 130°
2026-05-07 10:59 -13.67060 91.18552 32915 ft 534 kts 130°
2026-05-07 10:59 -13.71829 91.24386 32913 ft 532 kts 130°
2026-05-07 11:00 -13.76587 91.30213 32916 ft 532 kts 130°
2026-05-07 11:00 -13.81355 91.36055 32925 ft 534 kts 130°
2026-05-07 11:01 -13.86105 91.41877 32924 ft 535 kts 130°
2026-05-07 11:01 -13.90904 91.47764 32922 ft 532 kts 130°
2026-05-07 11:02 -13.95659 91.53602 32925 ft 532 kts 130°
2026-05-07 11:02 -14.00367 91.59386 32925 ft 530 kts 130°
2026-05-07 11:03 -14.05096 91.65201 32925 ft 530 kts 130°
2026-05-07 11:03 -14.09828 91.71022 32933 ft 529 kts 130°
2026-05-07 11:04 -14.14550 91.76837 32933 ft 529 kts 130°
2026-05-07 11:04 -14.19271 91.82653 32933 ft 529 kts 130°
2026-05-07 11:05 -14.24000 91.88484 32939 ft 533 kts 130°
2026-05-07 11:05 -14.28769 91.94368 32939 ft 536 kts 130°
2026-05-07 11:06 -14.33550 92.00270 32938 ft 537 kts 130°
2026-05-07 11:06 -14.38330 92.06178 32944 ft 537 kts 130°
2026-05-07 11:07 -14.43112 92.12090 32944 ft 536 kts 130°
2026-05-07 11:07 -14.47891 92.18004 32947 ft 536 kts 130°
2026-05-07 11:08 -14.52665 92.23917 32947 ft 536 kts 130°
2026-05-07 11:08 -14.57439 92.29833 32952 ft 536 kts 130°
2026-05-07 11:09 -14.62220 92.35763 32947 ft 538 kts 130°
2026-05-07 11:09 -14.67008 92.41705 32949 ft 538 kts 130°
2026-05-07 11:10 -14.71794 92.47650 32952 ft 538 kts 130°
2026-05-07 11:10 -14.76578 92.53597 32952 ft 538 kts 130°
2026-05-07 11:11 -14.81359 92.59544 32952 ft 538 kts 130°
2026-05-07 11:11 -14.86139 92.65496 32949 ft 538 kts 130°
2026-05-07 11:12 -14.90916 92.71447 32951 ft 537 kts 131°
2026-05-07 11:12 -14.95685 92.77394 32947 ft 538 kts 131°
2026-05-07 11:13 -15.00467 92.83361 32950 ft 539 kts 131°
2026-05-07 11:13 -15.05247 92.89329 32949 ft 539 kts 131°
2026-05-07 11:14 -15.10024 92.95299 32947 ft 539 kts 131°
2026-05-07 11:14 -15.14771 93.01237 32947 ft 539 kts 131°
2026-05-07 11:15 -15.19544 93.07211 32946 ft 538 kts 131°
2026-05-07 11:15 -15.24312 93.13185 32950 ft 538 kts 131°
2026-05-07 11:16 -15.29077 93.19158 32950 ft 538 kts 131°
2026-05-07 11:16 -15.33849 93.25145 32949 ft 539 kts 131°
2026-05-07 11:17 -15.38620 93.31137 32949 ft 539 kts 131°
2026-05-07 11:17 -15.43391 93.37132 32949 ft 539 kts 131°
2026-05-07 11:18 -15.48161 93.43130 32949 ft 539 kts 131°
2026-05-07 11:18 -15.52927 93.49129 32949 ft 539 kts 131°
2026-05-07 11:19 -15.57693 93.55133 32950 ft 539 kts 131°
2026-05-07 11:19 -15.62456 93.61138 32955 ft 539 kts 131°
2026-05-07 11:20 -15.67217 93.67144 32952 ft 539 kts 131°
2026-05-07 11:20 -15.71979 93.73158 32952 ft 539 kts 131°
2026-05-07 11:21 -15.76738 93.79172 32949 ft 539 kts 131°
2026-05-07 11:21 -15.81497 93.85190 32952 ft 540 kts 131°
2026-05-07 11:22 -15.86261 93.91220 32952 ft 540 kts 131°
2026-05-07 11:22 -15.91020 93.97250 32952 ft 540 kts 131°
2026-05-07 11:23 -15.95779 94.03284 32955 ft 540 kts 131°
2026-05-07 11:23 -16.00544 94.09330 32955 ft 541 kts 131°
2026-05-07 11:24 -16.05316 94.15391 32958 ft 542 kts 131°
2026-05-07 11:24 -16.10087 94.21454 32958 ft 542 kts 131°
2026-05-07 11:25 -16.14859 94.27525 32955 ft 542 kts 131°
2026-05-07 11:25 -16.19600 94.33561 32957 ft 542 kts 131°
2026-05-07 11:26 -16.24368 94.39636 32955 ft 542 kts 131°
2026-05-07 11:26 -16.29133 94.45715 32958 ft 542 kts 131°
2026-05-07 11:27 -16.33908 94.51809 32959 ft 545 kts 131°
2026-05-07 11:27 -16.38707 94.57939 32958 ft 546 kts 131°
2026-05-07 11:28 -16.43509 94.64079 32957 ft 547 kts 131°
2026-05-07 11:28 -16.48309 94.70222 32960 ft 547 kts 131°
2026-05-07 11:29 -16.53109 94.76370 32961 ft 547 kts 131°
2026-05-07 11:29 -16.57908 94.82523 32964 ft 547 kts 131°
2026-05-07 11:30 -16.62706 94.88680 32964 ft 547 kts 131°
2026-05-07 11:30 -16.67504 94.94842 32967 ft 548 kts 131°
2026-05-07 11:31 -16.72316 95.01026 32964 ft 550 kts 131°
2026-05-07 11:31 -16.77135 95.07225 32964 ft 550 kts 131°
2026-05-07 11:32 -16.83544 95.15479 32965 ft 550 kts 131°
2026-05-07 11:33 -16.88359 95.21688 32964 ft 550 kts 131°
2026-05-07 11:33 -16.93169 95.27894 32969 ft 550 kts 131°
2026-05-07 11:34 -16.97979 95.34107 32982 ft 550 kts 131°
2026-05-07 11:34 -17.02794 95.40330 32972 ft 551 kts 131°
2026-05-07 11:35 -17.07616 95.46569 32971 ft 552 kts 131°
2026-05-07 11:35 -17.12437 95.52812 32972 ft 552 kts 131°
2026-05-07 11:36 -17.17256 95.59058 32971 ft 552 kts 131°
2026-05-07 11:36 -17.22070 95.65305 32971 ft 552 kts 131°
2026-05-07 11:37 -17.26885 95.71558 32977 ft 552 kts 131°
2026-05-07 11:37 -17.31671 95.77779 32982 ft 553 kts 131°
2026-05-07 11:38 -17.36492 95.84050 32974 ft 553 kts 131°
2026-05-07 11:38 -17.41316 95.90331 32977 ft 553 kts 131°
2026-05-07 11:39 -17.46136 95.96614 32977 ft 553 kts 131°
2026-05-07 11:39 -17.50957 96.02904 32973 ft 553 kts 131°
2026-05-07 11:40 -17.55774 96.09195 32980 ft 553 kts 131°
2026-05-07 11:40 -17.60592 96.15493 32976 ft 554 kts 131°
2026-05-07 11:41 -17.65414 96.21802 32989 ft 554 kts 132°
2026-05-07 11:41 -17.70243 96.28126 32981 ft 556 kts 132°
2026-05-07 11:42 -17.75076 96.34461 32983 ft 556 kts 132°
2026-05-07 11:42 -17.79906 96.40798 32985 ft 556 kts 132°
2026-05-07 11:43 -17.84737 96.47143 32988 ft 556 kts 132°
2026-05-07 11:43 -17.89565 96.53490 32988 ft 556 kts 132°
2026-05-07 11:44 -17.94390 96.59840 32984 ft 556 kts 132°
2026-05-07 11:44 -17.99215 96.66197 32980 ft 556 kts 132°
2026-05-07 11:45 -18.04039 96.72556 32988 ft 556 kts 132°
2026-05-07 11:45 -18.08859 96.78919 32988 ft 557 kts 132°
2026-05-07 11:46 -18.13679 96.85286 32989 ft 557 kts 132°
2026-05-07 11:46 -18.18500 96.91662 32985 ft 557 kts 132°
2026-05-07 11:47 -18.23321 96.98043 32989 ft 557 kts 131°
2026-05-07 11:47 -18.28141 97.04430 32973 ft 557 kts 131°
2026-05-07 11:48 -18.32961 97.10824 32985 ft 559 kts 132°
2026-05-07 11:48 -18.37795 97.17240 32984 ft 560 kts 132°
2026-05-07 11:49 -18.42628 97.23664 32987 ft 560 kts 132°
2026-05-07 11:49 -18.47461 97.30094 32988 ft 560 kts 132°
2026-05-07 11:50 -18.52259 97.36483 32988 ft 560 kts 132°
2026-05-07 11:50 -18.57083 97.42915 32984 ft 559 kts 131°
2026-05-07 11:51 -18.61908 97.49353 32984 ft 560 kts 131°
2026-05-07 11:51 -18.66736 97.55801 32989 ft 561 kts 131°
2026-05-07 11:52 -18.71576 97.62272 32994 ft 562 kts 132°
2026-05-07 11:52 -18.76419 97.68755 32995 ft 563 kts 132°
2026-05-07 11:53 -18.81260 97.75242 32993 ft 563 kts 132°
2026-05-07 11:53 -18.86101 97.81735 32993 ft 563 kts 132°
2026-05-07 11:54 -18.90938 97.88230 32989 ft 563 kts 131°
2026-05-07 11:54 -18.95774 97.94730 33005 ft 563 kts 131°
2026-05-07 11:55 -19.00616 98.01245 32994 ft 564 kts 132°
2026-05-07 11:55 -19.05464 98.07776 32988 ft 565 kts 132°
2026-05-07 11:56 -19.10314 98.14315 32994 ft 565 kts 132°
2026-05-07 11:56 -19.15159 98.20855 32995 ft 565 kts 132°
2026-05-07 11:57 -19.20002 98.27400 32991 ft 565 kts 132°
2026-05-07 11:57 -19.24843 98.33948 32993 ft 565 kts 131°
2026-05-07 11:58 -19.29648 98.40455 33000 ft 566 kts 132°
2026-05-07 11:58 -19.34498 98.47029 33001 ft 567 kts 132°
2026-05-07 11:59 -19.39350 98.53613 32998 ft 567 kts 132°
2026-05-07 11:59 -19.44201 98.60203 33000 ft 567 kts 132°
2026-05-07 12:00 -19.49046 98.66792 33000 ft 567 kts 132°
2026-05-07 12:00 -19.53891 98.73389 33004 ft 567 kts 132°
2026-05-07 12:01 -19.58735 98.79991 33029 ft 567 kts 132°
2026-05-07 12:01 -19.63578 98.86600 33004 ft 568 kts 132°
2026-05-07 12:02 -19.68427 98.93223 33009 ft 568 kts 132°
2026-05-07 12:02 -19.73272 98.99849 33010 ft 568 kts 132°
2026-05-07 12:03 -19.78113 99.06477 33008 ft 568 kts 132°
2026-05-07 12:03 -19.82953 99.13110 33010 ft 568 kts 132°
2026-05-07 12:04 -19.87795 99.19753 33016 ft 568 kts 132°
2026-05-07 12:04 -19.92634 99.26400 33009 ft 569 kts 132°
2026-05-07 12:05 -19.97482 99.33067 33010 ft 570 kts 132°
2026-05-07 12:05 -20.02325 99.39734 33009 ft 570 kts 132°
2026-05-07 12:06 -20.07047 99.46243 33009 ft 570 kts 132°
2026-05-07 12:06 -20.11854 99.52875 33015 ft 570 kts 132°
2026-05-07 12:07 -20.16687 99.59552 33016 ft 570 kts 132°
2026-05-07 12:07 -20.21519 99.66233 33026 ft 570 kts 132°
2026-05-07 12:08 -20.26357 99.72930 33020 ft 571 kts 132°
2026-05-07 12:08 -20.31199 99.79642 33020 ft 571 kts 132°
2026-05-07 12:09 -20.36040 99.86361 33023 ft 571 kts 132°
2026-05-07 12:09 -20.40869 99.93071 33023 ft 571 kts 132°
2026-05-07 12:10 -20.45699 99.99790 33023 ft 571 kts 132°
2026-05-07 12:10 -20.50523 100.06507 33023 ft 571 kts 132°
2026-05-07 12:11 -20.55355 100.13242 33025 ft 573 kts 132°
2026-05-07 12:11 -20.60204 100.20009 33026 ft 574 kts 132°
2026-05-07 12:12 -20.65046 100.26777 33026 ft 573 kts 132°
2026-05-07 12:12 -20.69879 100.33541 33026 ft 573 kts 132°
2026-05-07 12:13 -20.74710 100.40308 33025 ft 573 kts 132°
2026-05-07 12:13 -20.79537 100.47077 33032 ft 573 kts 132°
2026-05-07 12:14 -20.84367 100.53857 33038 ft 575 kts 132°
2026-05-07 12:14 -20.89218 100.60674 33037 ft 576 kts 132°
2026-05-07 12:15 -20.94065 100.67498 33035 ft 576 kts 132°
2026-05-07 12:15 -20.98912 100.74328 33036 ft 576 kts 132°
2026-05-07 12:16 -21.03754 100.81160 33035 ft 576 kts 132°
2026-05-07 12:16 -21.08561 100.87952 33039 ft 576 kts 132°
2026-05-07 12:17 -21.13432 100.94840 33039 ft 576 kts 132°
2026-05-07 12:17 -21.18236 101.01642 33042 ft 576 kts 132°
2026-05-07 12:18 -21.23068 101.08494 33041 ft 576 kts 132°
2026-05-07 12:18 -21.27897 101.15348 33042 ft 576 kts 132°
2026-05-07 12:19 -21.32723 101.22208 33044 ft 576 kts 132°
2026-05-07 12:19 -21.37545 101.29069 33043 ft 576 kts 132°
2026-05-07 12:20 -21.42364 101.35936 33051 ft 576 kts 132°
2026-05-07 12:20 -21.46379 101.41660 33042 ft 579 kts 132°
2026-05-07 12:21 -21.50820 101.48926 33045 ft 584 kts 125°
2026-05-07 12:21 -21.54925 101.56509 33049 ft 592 kts 123°
2026-05-07 12:22 -21.59004 101.64262 33050 ft 599 kts 123°
2026-05-07 12:22 -21.63122 101.72078 33051 ft 602 kts 123°
2026-05-07 12:23 -21.67266 101.79904 33055 ft 603 kts 124°
2026-05-07 12:23 -21.71419 101.87735 33060 ft 603 kts 124°
2026-05-07 12:24 -21.75580 101.95588 33053 ft 605 kts 124°
2026-05-07 12:24 -21.79743 102.03462 33058 ft 606 kts 124°
2026-05-07 12:25 -21.83900 102.11341 33058 ft 605 kts 124°
2026-05-07 12:25 -21.88051 102.19219 33062 ft 605 kts 123°
2026-05-07 12:26 -21.92201 102.27104 33063 ft 605 kts 123°
2026-05-07 12:26 -21.96346 102.34993 33063 ft 605 kts 123°
2026-05-07 12:27 -22.00488 102.42889 33073 ft 606 kts 124°
2026-05-07 12:27 -22.04635 102.50803 33070 ft 607 kts 124°
2026-05-07 12:28 -22.08784 102.58734 33066 ft 607 kts 123°
2026-05-07 12:28 -22.12927 102.66669 33067 ft 607 kts 123°
2026-05-07 12:29 -22.17040 102.74555 33069 ft 607 kts 123°
2026-05-07 12:29 -22.21175 102.82496 33071 ft 607 kts 123°
2026-05-07 12:30 -22.25305 102.90441 33072 ft 607 kts 123°
2026-05-07 12:30 -22.29437 102.98398 33074 ft 609 kts 124°
2026-05-07 12:31 -22.33580 103.06389 33074 ft 610 kts 124°
2026-05-07 12:31 -22.37718 103.14387 33077 ft 610 kts 124°
2026-05-07 12:32 -22.41853 103.22390 33082 ft 610 kts 123°
2026-05-07 12:32 -22.45984 103.30398 33077 ft 610 kts 123°
2026-05-07 12:33 -22.52171 103.42413 33079 ft 610 kts 123°
2026-05-07 12:33 -22.56296 103.50440 33088 ft 611 kts 124°
2026-05-07 12:34 -22.60425 103.58485 33083 ft 612 kts 123°
2026-05-07 12:34 -22.64551 103.66539 33087 ft 612 kts 123°
2026-05-07 12:35 -22.68676 103.74603 33086 ft 612 kts 123°
2026-05-07 12:35 -22.72797 103.82673 33086 ft 612 kts 123°
2026-05-07 12:36 -22.76911 103.90742 33092 ft 612 kts 123°
2026-05-07 12:36 -22.81025 103.98823 33117 ft 612 kts 123°
2026-05-07 12:37 -22.85135 104.06910 33093 ft 613 kts 123°
2026-05-07 12:37 -22.89249 104.15016 33098 ft 613 kts 123°
2026-05-07 12:38 -22.93358 104.23126 33091 ft 613 kts 123°
2026-05-07 12:38 -22.97461 104.31238 33098 ft 613 kts 123°
2026-05-07 12:39 -23.01560 104.39356 33098 ft 613 kts 123°
2026-05-07 12:39 -23.05655 104.47477 33098 ft 613 kts 123°
2026-05-07 12:40 -23.09746 104.55605 33102 ft 614 kts 123°
2026-05-07 12:40 -23.13839 104.63748 33102 ft 615 kts 123°
2026-05-07 12:41 -23.17903 104.71846 33105 ft 614 kts 123°
2026-05-07 12:41 -23.21992 104.80011 33105 ft 615 kts 123°
2026-05-07 12:42 -23.26076 104.88178 33105 ft 615 kts 123°
2026-05-07 12:42 -23.30154 104.96345 33107 ft 615 kts 123°
2026-05-07 12:43 -23.34232 105.04527 33136 ft 615 kts 123°
2026-05-07 12:43 -23.38301 105.12705 33108 ft 614 kts 123°
2026-05-07 12:44 -23.42366 105.20885 33108 ft 614 kts 123°
2026-05-07 12:44 -23.46425 105.29068 33107 ft 614 kts 123°
2026-05-07 12:45 -23.50477 105.37254 33109 ft 614 kts 123°
2026-05-07 12:45 -23.54532 105.45456 33110 ft 614 kts 123°
2026-05-07 12:46 -23.58579 105.53656 33120 ft 614 kts 123°
2026-05-07 12:46 -23.62618 105.61856 33118 ft 613 kts 123°
2026-05-07 12:47 -23.66621 105.69995 33116 ft 613 kts 123°
2026-05-07 12:47 -23.70650 105.78198 33119 ft 613 kts 123°
2026-05-07 12:48 -23.74674 105.86407 33121 ft 613 kts 123°
2026-05-07 12:48 -23.78695 105.94624 33121 ft 613 kts 123°
2026-05-07 12:49 -23.82709 106.02842 33123 ft 613 kts 123°
2026-05-07 12:49 -23.86721 106.11071 33124 ft 614 kts 123°
2026-05-07 12:50 -23.90728 106.19300 33127 ft 614 kts 123°
2026-05-07 12:50 -23.94731 106.27536 33127 ft 614 kts 123°
2026-05-07 12:51 -23.98730 106.35780 33119 ft 614 kts 123°
2026-05-07 12:51 -24.02726 106.44028 33124 ft 614 kts 123°
2026-05-07 12:52 -24.06721 106.52291 33124 ft 614 kts 123°
2026-05-07 12:52 -24.10708 106.60553 33135 ft 613 kts 123°
2026-05-07 12:53 -24.14675 106.68788 33123 ft 611 kts 123°
2026-05-07 12:53 -24.18637 106.77022 33129 ft 611 kts 123°
2026-05-07 12:54 -24.22596 106.85265 33134 ft 612 kts 123°
2026-05-07 12:54 -24.26551 106.93516 33131 ft 612 kts 123°
2026-05-07 12:55 -24.30477 107.01721 33135 ft 612 kts 123°
2026-05-07 12:55 -24.34423 107.09982 33163 ft 612 kts 123°
2026-05-07 12:56 -24.38363 107.18248 33137 ft 611 kts 123°
2026-05-07 12:56 -24.42297 107.26514 33140 ft 611 kts 123°
2026-05-07 12:57 -24.46225 107.34780 33135 ft 611 kts 123°
2026-05-07 12:57 -24.50148 107.43053 33137 ft 611 kts 123°
2026-05-07 12:58 -24.54073 107.51342 33138 ft 612 kts 123°
2026-05-07 12:58 -24.57992 107.59634 33138 ft 612 kts 123°
2026-05-07 12:59 -24.61893 107.67908 33131 ft 608 kts 123°
2026-05-07 12:59 -24.65773 107.76148 33143 ft 606 kts 123°
2026-05-07 13:00 -24.69649 107.84388 33146 ft 607 kts 123°
2026-05-07 13:00 -24.73526 107.92646 33143 ft 607 kts 123°
2026-05-07 13:01 -24.77393 108.00902 33141 ft 607 kts 122°
2026-05-07 13:01 -24.81254 108.09160 33143 ft 607 kts 122°
2026-05-07 13:02 -24.85105 108.17412 33142 ft 604 kts 122°
2026-05-07 13:02 -24.88936 108.25636 33142 ft 603 kts 122°
2026-05-07 13:03 -24.92764 108.33864 33142 ft 603 kts 122°
2026-05-07 13:03 -24.96584 108.42092 33147 ft 603 kts 122°
2026-05-07 13:04 -25.00404 108.50335 33152 ft 604 kts 122°
2026-05-07 13:04 -25.04225 108.58595 33144 ft 604 kts 122°
2026-05-07 13:05 -25.08034 108.66846 33155 ft 602 kts 122°
2026-05-07 13:05 -25.11792 108.75005 33151 ft 600 kts 122°
2026-05-07 13:06 -25.15569 108.83215 33154 ft 600 kts 122°
2026-05-07 13:06 -25.19346 108.91436 33154 ft 600 kts 122°
2026-05-07 13:07 -25.23118 108.99664 33153 ft 600 kts 122°
2026-05-07 13:07 -25.26885 109.07898 33157 ft 600 kts 122°
2026-05-07 13:08 -25.30643 109.16129 33164 ft 598 kts 122°
2026-05-07 13:08 -25.34380 109.24330 33159 ft 597 kts 122°
2026-05-07 13:09 -25.38110 109.32525 33160 ft 597 kts 122°
2026-05-07 13:09 -25.41205 109.39337 33156 ft 596 kts 122°
2026-05-07 13:10 -25.44926 109.47541 33160 ft 596 kts 122°
2026-05-07 13:10 -25.48643 109.55754 33159 ft 597 kts 122°
2026-05-07 13:11 -25.52361 109.63981 33168 ft 596 kts 121°
2026-05-07 13:11 -25.56038 109.72145 33162 ft 591 kts 121°
2026-05-07 13:12 -25.59705 109.80289 33158 ft 590 kts 121°
2026-05-07 13:12 -25.63369 109.88439 33165 ft 591 kts 121°
2026-05-07 13:13 -25.67033 109.96605 33166 ft 592 kts 121°
2026-05-07 13:13 -25.70691 110.04776 33169 ft 592 kts 121°
2026-05-07 13:14 -25.74345 110.12955 33186 ft 591 kts 121°
2026-05-07 13:14 -25.77979 110.21107 33168 ft 589 kts 121°
2026-05-07 13:15 -25.81580 110.29195 33167 ft 589 kts 121°
2026-05-07 13:15 -25.85203 110.37348 33168 ft 589 kts 121°
2026-05-07 13:16 -25.88820 110.45503 33171 ft 588 kts 121°
2026-05-07 13:16 -25.92433 110.53666 33169 ft 590 kts 121°
2026-05-07 13:17 -25.96049 110.61847 33195 ft 589 kts 121°
2026-05-07 13:17 -25.99634 110.69978 33173 ft 584 kts 121°
2026-05-07 13:18 -26.03199 110.78078 33170 ft 583 kts 121°
2026-05-07 13:18 -26.06761 110.86185 33176 ft 584 kts 121°
2026-05-07 13:19 -26.10325 110.94309 33170 ft 584 kts 121°
2026-05-07 13:19 -26.13882 111.02435 33176 ft 584 kts 121°
2026-05-07 13:20 -26.17436 111.10571 33176 ft 584 kts 121°
2026-05-07 13:20 -26.20983 111.18706 33176 ft 585 kts 121°
2026-05-07 13:21 -26.24531 111.26857 33179 ft 585 kts 121°
2026-05-07 13:21 -26.28078 111.35021 33178 ft 585 kts 121°
2026-05-07 13:22 -26.31619 111.43190 33179 ft 585 kts 121°
2026-05-07 13:22 -26.35153 111.51357 33178 ft 585 kts 121°
2026-05-07 13:23 -26.38660 111.59476 33188 ft 583 kts 120°
2026-05-07 13:23 -26.42151 111.67580 33179 ft 579 kts 120°
2026-05-07 13:24 -26.45632 111.75669 33179 ft 578 kts 120°
2026-05-07 13:24 -26.49105 111.83755 33181 ft 578 kts 120°
2026-05-07 13:25 -26.52578 111.91855 33184 ft 578 kts 120°
2026-05-07 13:25 -26.56047 111.99963 33186 ft 578 kts 120°
2026-05-07 13:26 -26.59508 112.08069 33192 ft 577 kts 120°
2026-05-07 13:26 -26.62945 112.16141 33187 ft 574 kts 120°
2026-05-07 13:27 -26.66372 112.24196 33187 ft 574 kts 120°
2026-05-07 13:27 -26.69797 112.32262 33186 ft 574 kts 120°
2026-05-07 13:28 -26.73218 112.40336 33189 ft 574 kts 120°
2026-05-07 13:28 -26.76634 112.48414 33189 ft 574 kts 120°
2026-05-07 13:29 -26.80041 112.56487 33197 ft 572 kts 120°
2026-05-07 13:29 -26.83416 112.64506 33188 ft 568 kts 120°
2026-05-07 13:30 -26.86778 112.72501 33190 ft 567 kts 120°
2026-05-07 13:30 -26.90134 112.80496 33199 ft 567 kts 120°
2026-05-07 13:31 -26.93488 112.88503 33191 ft 568 kts 120°
2026-05-07 13:31 -26.96838 112.96515 33193 ft 568 kts 120°
2026-05-07 13:32 -27.00181 113.04529 33203 ft 566 kts 120°
2026-05-07 13:32 -27.03496 113.12500 33204 ft 563 kts 120°
2026-05-07 13:33 -27.06800 113.20451 33203 ft 562 kts 120°
2026-05-07 13:33 -27.10101 113.28406 33188 ft 562 kts 120°
2026-05-07 13:34 -27.15042 113.40348 33214 ft 562 kts 120°
2026-05-07 13:35 -27.18307 113.48258 33196 ft 562 kts 120°
2026-05-07 13:35 -27.21574 113.56194 33205 ft 558 kts 119°
2026-05-07 13:36 -27.24829 113.64112 33211 ft 558 kts 119°
2026-05-07 13:36 -27.28076 113.72024 33214 ft 558 kts 119°
2026-05-07 13:37 -27.31321 113.79947 33219 ft 558 kts 119°
2026-05-07 13:37 -27.34560 113.87869 33222 ft 558 kts 119°
2026-05-07 13:38 -27.37797 113.95806 33243 ft 558 kts 119°
2026-05-07 13:38 -27.41018 114.03721 33230 ft 555 kts 118°
2026-05-07 13:39 -27.44224 114.11613 33232 ft 554 kts 118°
2026-05-07 13:39 -27.47429 114.19513 33232 ft 555 kts 118°
2026-05-07 13:40 -27.50630 114.27420 33243 ft 555 kts 118°
2026-05-07 13:40 -27.53825 114.35330 33243 ft 555 kts 118°
2026-05-07 13:41 -27.57018 114.43251 33275 ft 554 kts 118°
2026-05-07 13:41 -27.60183 114.51127 33251 ft 550 kts 118°
2026-05-07 13:42 -27.63335 114.58980 33253 ft 549 kts 118°
2026-05-07 13:42 -27.66461 114.66781 33260 ft 549 kts 118°
2026-05-07 13:43 -27.69603 114.74637 33260 ft 549 kts 118°
2026-05-07 13:43 -27.72742 114.82501 33268 ft 549 kts 118°
2026-05-07 13:44 -27.75876 114.90367 33275 ft 548 kts 117°
2026-05-07 13:44 -27.78986 114.98196 33273 ft 546 kts 117°
2026-05-07 13:45 -27.82088 115.06013 33274 ft 546 kts 117°
2026-05-07 13:45 -27.85189 115.13841 33273 ft 546 kts 117°
2026-05-07 13:46 -27.88286 115.21677 33280 ft 546 kts 117°
2026-05-07 13:46 -27.91377 115.29516 33284 ft 546 kts 117°
2026-05-07 13:47 -27.94461 115.37352 33292 ft 544 kts 117°
2026-05-07 13:47 -27.97522 115.45147 33292 ft 542 kts 117°
2026-05-07 13:48 -28.00576 115.52938 33294 ft 542 kts 117°
2026-05-07 13:48 -28.03626 115.60732 33296 ft 541 kts 117°
2026-05-07 13:49 -28.06650 115.68477 33301 ft 541 kts 117°
2026-05-07 13:49 -28.09690 115.76278 33285 ft 541 kts 117°
2026-05-07 13:50 -28.12725 115.84082 33311 ft 541 kts 117°
2026-05-07 13:50 -28.15756 115.91893 33314 ft 541 kts 117°
2026-05-07 13:51 -28.18782 115.99705 33321 ft 541 kts 117°
2026-05-07 13:51 -28.21802 116.07519 33305 ft 541 kts 117°
2026-05-07 13:52 -28.24818 116.15338 33307 ft 541 kts 117°
2026-05-07 13:52 -28.27828 116.23158 33306 ft 541 kts 116°
2026-05-07 13:53 -28.30831 116.30974 33325 ft 540 kts 116°
2026-05-07 13:53 -28.33824 116.38783 33324 ft 539 kts 116°
2026-05-07 13:54 -28.36811 116.46591 33328 ft 539 kts 116°
2026-05-07 13:54 -28.39794 116.54403 33331 ft 539 kts 116°
2026-05-07 13:55 -28.42773 116.62221 33335 ft 539 kts 116°
2026-05-07 13:55 -28.45744 116.70036 33350 ft 539 kts 116°
2026-05-07 13:56 -28.48703 116.77833 33345 ft 536 kts 116°
2026-05-07 13:56 -28.51649 116.85612 33344 ft 536 kts 116°
2026-05-07 13:57 -28.54589 116.93394 33343 ft 536 kts 116°
2026-05-07 13:57 -28.57526 117.01182 33352 ft 536 kts 116°
2026-05-07 13:58 -28.60440 117.08925 33352 ft 536 kts 116°
2026-05-07 13:58 -28.63369 117.16725 33364 ft 535 kts 115°
2026-05-07 13:59 -28.66276 117.24483 33360 ft 532 kts 115°
2026-05-07 13:59 -28.68703 117.30972 33360 ft 532 kts 115°
2026-05-07 14:00 -28.71598 117.38724 33365 ft 532 kts 115°
2026-05-07 14:00 -28.74487 117.46478 33369 ft 532 kts 115°
2026-05-07 14:01 -28.77351 117.54184 33375 ft 532 kts 115°
2026-05-07 14:01 -28.80230 117.61943 33372 ft 530 kts 115°
2026-05-07 14:02 -28.83092 117.69673 33376 ft 529 kts 115°
2026-05-07 14:02 -28.85946 117.77397 33379 ft 529 kts 115°
2026-05-07 14:03 -28.88797 117.85128 33387 ft 529 kts 115°
2026-05-07 14:03 -28.91642 117.92863 33387 ft 529 kts 115°
2026-05-07 14:04 -28.94486 118.00607 33387 ft 529 kts 115°
2026-05-07 14:04 -28.97317 118.08336 33390 ft 526 kts 115°
2026-05-07 14:05 -29.00135 118.16046 33389 ft 526 kts 115°
2026-05-07 14:05 -29.02949 118.23758 33398 ft 526 kts 115°
2026-05-07 14:06 -29.05760 118.31478 33398 ft 526 kts 115°
2026-05-07 14:06 -29.08564 118.39197 33403 ft 526 kts 115°
2026-05-07 14:07 -29.11363 118.46918 33406 ft 525 kts 114°
2026-05-07 14:07 -29.14147 118.54613 33409 ft 523 kts 114°
2026-05-07 14:08 -29.16922 118.62300 33405 ft 523 kts 114°
2026-05-07 14:08 -29.19692 118.69991 33406 ft 522 kts 114°
2026-05-07 14:09 -29.22455 118.77678 33414 ft 522 kts 114°
2026-05-07 14:09 -29.25195 118.85316 33414 ft 522 kts 114°
2026-05-07 14:10 -29.27963 118.93050 33422 ft 520 kts 114°
2026-05-07 14:10 -29.30676 119.00649 33423 ft 518 kts 114°
2026-05-07 14:11 -29.33401 119.08294 33429 ft 518 kts 114°
2026-05-07 14:11 -29.36120 119.15940 33426 ft 518 kts 114°
2026-05-07 14:12 -29.38836 119.23591 33433 ft 518 kts 114°
2026-05-07 14:12 -29.41544 119.31239 33435 ft 517 kts 114°
2026-05-07 14:13 -29.44241 119.38870 33434 ft 515 kts 114°
2026-05-07 14:13 -29.46926 119.46485 33441 ft 515 kts 114°
2026-05-07 14:14 -29.49607 119.54103 33445 ft 515 kts 114°
2026-05-07 14:14 -29.52283 119.61726 33444 ft 515 kts 114°
2026-05-07 14:15 -29.54956 119.69356 33446 ft 515 kts 114°
2026-05-07 14:15 -29.57624 119.76987 33450 ft 514 kts 113°
2026-05-07 14:16 -29.60278 119.84595 33452 ft 512 kts 113°
2026-05-07 14:16 -29.62923 119.92196 33457 ft 512 kts 113°
2026-05-07 14:17 -29.65566 119.99803 33455 ft 512 kts 113°
2026-05-07 14:17 -29.68203 120.07413 33457 ft 512 kts 113°
2026-05-07 14:18 -29.70820 120.14979 33458 ft 512 kts 113°
2026-05-07 14:18 -29.73449 120.22598 33457 ft 513 kts 113°
2026-05-07 14:19 -29.76075 120.30224 33463 ft 513 kts 113°
2026-05-07 14:19 -29.78697 120.37857 33463 ft 513 kts 113°
2026-05-07 14:20 -29.81313 120.45487 33463 ft 512 kts 113°
2026-05-07 14:20 -29.83925 120.53123 33464 ft 512 kts 113°
2026-05-07 14:21 -29.86530 120.60757 33472 ft 511 kts 113°
2026-05-07 14:21 -29.89125 120.68377 33472 ft 511 kts 113°
2026-05-07 14:22 -29.91716 120.76001 33474 ft 511 kts 113°
2026-05-07 14:22 -29.94302 120.83628 33475 ft 511 kts 113°
2026-05-07 14:23 -29.96883 120.91256 33475 ft 511 kts 113°
2026-05-07 14:23 -29.99460 120.98891 33475 ft 511 kts 113°
2026-05-07 14:24 -30.02027 121.06514 33474 ft 509 kts 113°
2026-05-07 14:24 -30.04587 121.14133 33476 ft 509 kts 113°
2026-05-07 14:25 -30.07143 121.21755 33479 ft 509 kts 113°
2026-05-07 14:25 -30.09692 121.29375 33482 ft 509 kts 113°
2026-05-07 14:26 -30.12241 121.37008 33488 ft 509 kts 113°
2026-05-07 14:26 -30.14782 121.44638 33476 ft 508 kts 113°
2026-05-07 14:27 -30.17310 121.52246 33483 ft 507 kts 113°
2026-05-07 14:27 -30.19835 121.59862 33488 ft 508 kts 113°
2026-05-07 14:28 -30.22359 121.67492 33505 ft 508 kts 113°
2026-05-07 14:28 -30.24879 121.75125 33485 ft 508 kts 112°
2026-05-07 14:29 -30.27376 121.82708 33490 ft 507 kts 112°
2026-05-07 14:29 -30.29880 121.90329 33497 ft 506 kts 112°
2026-05-07 14:30 -30.32378 121.97950 33498 ft 506 kts 112°
2026-05-07 14:30 -30.34871 122.05569 33505 ft 506 kts 112°
2026-05-07 14:31 -30.37360 122.13199 33504 ft 507 kts 112°
2026-05-07 14:31 -30.39847 122.20836 33506 ft 507 kts 112°
2026-05-07 14:32 -30.42323 122.28459 33503 ft 505 kts 112°
2026-05-07 14:32 -30.44789 122.36067 33507 ft 504 kts 112°
2026-05-07 14:33 -30.47250 122.43679 33508 ft 505 kts 112°
2026-05-07 14:33 -30.49710 122.51304 33508 ft 505 kts 112°
2026-05-07 14:34 -30.52167 122.58938 33510 ft 505 kts 112°
2026-05-07 14:34 -30.54614 122.66557 33512 ft 502 kts 112°
2026-05-07 14:35 -30.57047 122.74151 33513 ft 502 kts 112°
2026-05-07 14:35 -30.59475 122.81749 33513 ft 502 kts 112°
2026-05-07 14:36 -30.61900 122.89352 33526 ft 502 kts 111°
2026-05-07 14:36 -30.64321 122.96960 33516 ft 503 kts 111°
2026-05-07 14:37 -30.66720 123.04519 33523 ft 500 kts 111°
2026-05-07 14:37 -30.70309 123.15861 33538 ft 498 kts 111°
2026-05-07 14:38 -30.72698 123.23430 33524 ft 500 kts 111°
2026-05-07 14:38 -30.75105 123.31075 33524 ft 500 kts 111°
2026-05-07 14:39 -30.77474 123.38616 33530 ft 500 kts 111°
2026-05-07 14:39 -30.79846 123.46188 33534 ft 496 kts 111°
2026-05-07 14:40 -30.82202 123.53725 33531 ft 495 kts 111°
2026-05-07 14:40 -30.84552 123.61257 33527 ft 495 kts 111°
2026-05-07 14:41 -30.86824 123.68825 33538 ft 496 kts 109°
2026-05-07 14:41 -30.88945 123.76466 33530 ft 497 kts 109°
2026-05-07 14:42 -30.91055 123.84106 33543 ft 494 kts 109°
2026-05-07 14:42 -30.93174 123.91702 33540 ft 493 kts 109°
2026-05-07 14:43 -30.95302 123.99295 33544 ft 493 kts 109°
2026-05-07 14:43 -30.97429 124.06898 33543 ft 494 kts 109°
2026-05-07 14:44 -30.99555 124.14519 33545 ft 494 kts 109°
2026-05-07 14:44 -31.01673 124.22134 33549 ft 494 kts 109°
2026-05-07 14:45 -31.03791 124.29769 33547 ft 495 kts 109°
2026-05-07 14:45 -31.05906 124.37414 33544 ft 495 kts 109°
2026-05-07 14:46 -31.07991 124.44973 33534 ft 480 kts 109°
2026-05-07 14:46 -31.09676 124.51097 33548 ft 475 kts 109°
2026-05-07 14:47 -31.11692 124.58437 33548 ft 475 kts 109°
2026-05-07 14:47 -31.13701 124.65764 33549 ft 473 kts 108°
2026-05-07 14:48 -31.15700 124.73079 33550 ft 473 kts 108°
2026-05-07 14:48 -31.17695 124.80393 33551 ft 473 kts 108°
2026-05-07 14:49 -31.19690 124.87728 33548 ft 474 kts 108°
2026-05-07 14:49 -31.21680 124.95064 33554 ft 474 kts 108°
2026-05-07 14:50 -31.23664 125.02397 33553 ft 473 kts 108°
2026-05-07 14:50 -31.25643 125.09726 33554 ft 473 kts 108°
2026-05-07 14:51 -31.27615 125.17054 33559 ft 473 kts 108°
2026-05-07 14:51 -31.29583 125.24383 33556 ft 473 kts 108°
2026-05-07 14:52 -31.31442 125.31319 33569 ft 475 kts 108°
2026-05-07 14:52 -31.33412 125.38690 33565 ft 475 kts 108°
2026-05-07 14:53 -31.35371 125.46042 33557 ft 472 kts 108°
2026-05-07 14:53 -31.37320 125.53369 33562 ft 472 kts 108°
2026-05-07 14:54 -31.39270 125.60723 33566 ft 474 kts 108°
2026-05-07 14:54 -31.41218 125.68089 33563 ft 474 kts 108°
2026-05-07 14:55 -31.43163 125.75459 33557 ft 474 kts 108°
2026-05-07 14:55 -31.45102 125.82827 33571 ft 473 kts 107°
2026-05-07 14:56 -31.47033 125.90186 33551 ft 472 kts 107°
2026-05-07 14:56 -31.48959 125.97543 33551 ft 472 kts 107°
2026-05-07 14:57 -31.50868 126.04854 33549 ft 472 kts 107°
2026-05-07 14:57 -31.52797 126.12260 33569 ft 472 kts 107°
2026-05-07 14:58 -31.54696 126.19572 33555 ft 471 kts 107°
2026-05-07 14:58 -31.56594 126.26898 33574 ft 469 kts 107°
2026-05-07 14:59 -31.58502 126.34278 33572 ft 470 kts 107°
2026-05-07 14:59 -31.60382 126.41576 33574 ft 470 kts 107°
2026-05-07 15:00 -31.62272 126.48926 33556 ft 470 kts 107°
2026-05-07 15:00 -31.64158 126.56285 33567 ft 471 kts 107°
2026-05-07 15:01 -31.66037 126.63633 33552 ft 469 kts 107°
2026-05-07 15:01 -31.67908 126.70970 33566 ft 469 kts 107°
2026-05-07 15:02 -31.69775 126.78308 33558 ft 470 kts 107°
2026-05-07 15:02 -31.71645 126.85682 33557 ft 472 kts 107°
2026-05-07 15:03 -31.73513 126.93066 33567 ft 471 kts 107°
2026-05-07 15:03 -31.75369 127.00420 33552 ft 469 kts 107°
2026-05-07 15:04 -31.77220 127.07776 33551 ft 470 kts 107°
2026-05-07 15:04 -31.79069 127.15144 33551 ft 470 kts 106°
2026-05-07 15:05 -31.80915 127.22517 33552 ft 470 kts 106°
2026-05-07 15:05 -31.82757 127.29897 33552 ft 471 kts 106°
2026-05-07 15:06 -31.84593 127.37271 33569 ft 469 kts 106°
2026-05-07 15:06 -31.86420 127.44634 33570 ft 469 kts 106°
2026-05-07 15:07 -31.88245 127.52004 33559 ft 470 kts 106°
2026-05-07 15:07 -31.90067 127.59384 33567 ft 470 kts 106°
2026-05-07 15:08 -31.91887 127.66775 33570 ft 470 kts 106°
2026-05-07 15:08 -31.93698 127.74150 33570 ft 469 kts 106°
2026-05-07 15:09 -31.95506 127.81532 33570 ft 469 kts 106°
2026-05-07 15:09 -31.97310 127.88921 33556 ft 469 kts 106°
2026-05-07 15:10 -31.99111 127.96314 33548 ft 469 kts 106°
2026-05-07 15:10 -32.01198 128.03605 33550 ft 470 kts 110°
2026-05-07 15:11 -32.03506 128.10763 33549 ft 471 kts 111°
2026-05-07 15:11 -32.05879 128.18008 33551 ft 471 kts 111°
2026-05-07 15:12 -32.08234 128.25216 33557 ft 472 kts 110°
2026-05-07 15:12 -32.10584 128.32447 33556 ft 472 kts 110°
2026-05-07 15:13 -32.12908 128.39621 33546 ft 470 kts 110°
2026-05-07 15:13 -32.15226 128.46795 33568 ft 467 kts 110°
2026-05-07 15:14 -32.17531 128.53945 33546 ft 466 kts 110°
2026-05-07 15:14 -32.19836 128.61110 33550 ft 467 kts 110°
2026-05-07 15:15 -32.22142 128.68293 33559 ft 468 kts 110°
2026-05-07 15:15 -32.24441 128.75473 33544 ft 467 kts 110°
2026-05-07 15:16 -32.26731 128.82640 33564 ft 467 kts 110°
2026-05-07 15:16 -32.29022 128.89827 33565 ft 468 kts 110°
2026-05-07 15:17 -32.31315 128.97032 33565 ft 468 kts 110°
2026-05-07 15:17 -32.33598 129.04227 33561 ft 467 kts 110°
2026-05-07 15:18 -32.35875 129.11417 33564 ft 467 kts 110°
2026-05-07 15:18 -32.38153 129.18628 33565 ft 469 kts 110°
2026-05-07 15:19 -32.40428 129.25848 33572 ft 468 kts 110°
2026-05-07 15:19 -32.42693 129.33050 33553 ft 467 kts 110°
2026-05-07 15:20 -32.44953 129.40255 33560 ft 468 kts 110°
2026-05-07 15:20 -32.47214 129.47479 33542 ft 468 kts 110°
2026-05-07 15:21 -32.49470 129.54703 33550 ft 467 kts 110°
2026-05-07 15:21 -32.51718 129.61916 33559 ft 467 kts 109°
2026-05-07 15:22 -32.53950 129.69098 33554 ft 468 kts 109°
2026-05-07 15:22 -32.56194 129.76335 33558 ft 468 kts 109°
2026-05-07 15:23 -32.58431 129.83567 33556 ft 467 kts 109°
2026-05-07 15:23 -32.60664 129.90802 33553 ft 467 kts 109°
2026-05-07 15:24 -32.62895 129.98046 33559 ft 467 kts 109°
2026-05-07 15:24 -32.65119 130.05287 33550 ft 467 kts 109°
2026-05-07 15:25 -32.67337 130.12524 33558 ft 467 kts 109°
2026-05-07 15:25 -32.69554 130.19776 33548 ft 467 kts 109°
2026-05-07 15:26 -32.71766 130.27028 33558 ft 467 kts 109°
2026-05-07 15:26 -32.73971 130.34276 33556 ft 466 kts 109°
2026-05-07 15:27 -32.76172 130.41525 33549 ft 467 kts 109°
2026-05-07 15:27 -32.78373 130.48793 33546 ft 467 kts 109°
2026-05-07 15:28 -32.80566 130.56053 33552 ft 466 kts 109°
2026-05-07 15:28 -32.82754 130.63313 33557 ft 466 kts 109°
2026-05-07 15:29 -32.84938 130.70577 33553 ft 467 kts 109°
2026-05-07 15:29 -32.87119 130.77849 33546 ft 467 kts 109°
2026-05-07 15:30 -32.89279 130.85068 33559 ft 466 kts 109°
2026-05-07 15:30 -32.91450 130.92342 33555 ft 467 kts 109°
2026-05-07 15:31 -32.93619 130.99627 33551 ft 467 kts 109°
2026-05-07 15:31 -32.95782 131.06908 33560 ft 466 kts 109°
2026-05-07 15:32 -32.97939 131.14189 33558 ft 466 kts 109°
2026-05-07 15:32 -33.00096 131.21487 33557 ft 468 kts 109°
2026-05-07 15:33 -33.02250 131.28791 33551 ft 467 kts 109°
2026-05-07 15:33 -33.04034 131.34858 33546 ft 467 kts 109°
2026-05-07 15:34 -33.06178 131.42164 33554 ft 467 kts 109°
2026-05-07 15:34 -33.08323 131.49487 33548 ft 467 kts 109°
2026-05-07 15:35 -33.10460 131.56802 33552 ft 466 kts 109°
2026-05-07 15:35 -33.12591 131.64119 33551 ft 467 kts 109°
2026-05-07 15:36 -33.14721 131.71451 33549 ft 468 kts 109°
2026-05-07 15:36 -33.16849 131.78790 33546 ft 467 kts 109°
2026-05-07 15:37 -33.18968 131.86115 33550 ft 467 kts 109°
2026-05-07 15:37 -33.21086 131.93458 33540 ft 469 kts 109°
2026-05-07 15:38 -33.23203 132.00817 33550 ft 468 kts 109°
2026-05-07 15:38 -33.25312 132.08166 33546 ft 468 kts 109°
2026-05-07 15:39 -33.27419 132.15525 33543 ft 469 kts 109°
2026-05-07 15:39 -33.29525 132.22901 33535 ft 469 kts 109°
2026-05-07 15:40 -33.31623 132.30271 33544 ft 468 kts 109°
2026-05-07 15:40 -33.33720 132.37652 33539 ft 469 kts 109°
2026-05-07 15:41 -33.35816 132.45047 33537 ft 469 kts 109°
2026-05-07 15:41 -33.37903 132.52435 33540 ft 468 kts 109°
2026-05-07 15:42 -33.39988 132.59829 33539 ft 469 kts 109°
2026-05-07 15:42 -33.42075 132.67250 33535 ft 470 kts 109°
2026-05-07 15:43 -33.44140 132.74615 33540 ft 469 kts 109°
2026-05-07 15:43 -33.46213 132.82026 33536 ft 470 kts 109°
2026-05-07 15:44 -33.48288 132.89465 33539 ft 472 kts 109°
2026-05-07 15:44 -33.50360 132.96911 33541 ft 470 kts 109°
2026-05-07 15:45 -33.52422 133.04340 33539 ft 470 kts 109°
2026-05-07 15:45 -33.54483 133.11790 33538 ft 472 kts 109°
2026-05-07 15:46 -33.57573 133.22990 33540 ft 470 kts 109°
2026-05-07 15:47 -33.59623 133.30442 33544 ft 471 kts 109°
2026-05-07 15:47 -33.61673 133.37921 33533 ft 472 kts 109°
2026-05-07 15:48 -33.63721 133.45409 33534 ft 472 kts 109°
2026-05-07 15:48 -33.65762 133.52891 33532 ft 472 kts 109°
2026-05-07 15:49 -33.67805 133.60402 33524 ft 473 kts 109°
2026-05-07 15:49 -33.69842 133.67914 33527 ft 473 kts 109°
2026-05-07 15:50 -33.71876 133.75429 33522 ft 473 kts 109°
2026-05-07 15:50 -33.73910 133.82965 33523 ft 475 kts 109°
2026-05-07 15:51 -33.75938 133.90503 33526 ft 473 kts 109°
2026-05-07 15:51 -33.77956 133.98021 33531 ft 473 kts 108°
2026-05-07 15:52 -33.79977 134.05569 33522 ft 475 kts 109°
2026-05-07 15:52 -33.81990 134.13116 33523 ft 474 kts 109°
2026-05-07 15:53 -33.84000 134.20668 33519 ft 475 kts 109°
2026-05-07 15:53 -33.86011 134.28242 33521 ft 476 kts 109°
2026-05-07 15:54 -33.88020 134.35834 33514 ft 475 kts 108°
2026-05-07 15:54 -33.90021 134.43415 33524 ft 476 kts 108°
2026-05-07 15:55 -33.92024 134.51026 33519 ft 478 kts 109°
2026-05-07 15:55 -33.94025 134.58653 33515 ft 477 kts 109°
2026-05-07 15:56 -33.96019 134.66265 33512 ft 477 kts 108°
2026-05-07 15:56 -33.98012 134.73904 33511 ft 478 kts 109°
2026-05-07 15:57 -34.00001 134.81548 33508 ft 478 kts 109°
2026-05-07 15:57 -34.01972 134.89139 33509 ft 478 kts 108°
2026-05-07 15:58 -34.03954 134.96801 33511 ft 479 kts 108°
2026-05-07 15:58 -34.05932 135.04468 33509 ft 479 kts 108°
2026-05-07 15:59 -34.07910 135.12152 33507 ft 480 kts 108°
2026-05-07 15:59 -34.09884 135.19849 33506 ft 480 kts 108°
2026-05-07 16:00 -34.11853 135.27548 33510 ft 480 kts 108°
2026-05-07 16:00 -34.13819 135.35245 33510 ft 480 kts 108°
2026-05-07 16:01 -34.15862 135.42921 33515 ft 480 kts 109°
2026-05-07 16:01 -34.17953 135.50579 33511 ft 480 kts 109°
2026-05-07 16:02 -34.20030 135.58247 33509 ft 480 kts 109°
2026-05-07 16:02 -34.22092 135.65932 33505 ft 481 kts 109°
2026-05-07 16:03 -34.24148 135.73634 33505 ft 481 kts 109°
2026-05-07 16:03 -34.26199 135.81338 33506 ft 482 kts 109°
2026-05-07 16:04 -34.28248 135.89057 33508 ft 483 kts 109°
2026-05-07 16:04 -34.30296 135.96788 33505 ft 483 kts 109°
2026-05-07 16:05 -34.32339 136.04526 33503 ft 483 kts 109°
2026-05-07 16:05 -34.34378 136.12274 33492 ft 483 kts 109°
2026-05-07 16:06 -34.36401 136.19980 33499 ft 484 kts 109°
2026-05-07 16:06 -34.38434 136.27746 33491 ft 484 kts 109°
2026-05-07 16:07 -34.40465 136.35523 33489 ft 484 kts 109°
2026-05-07 16:07 -34.42489 136.43304 33487 ft 485 kts 109°
2026-05-07 16:08 -34.44510 136.51093 33487 ft 485 kts 109°
2026-05-07 16:08 -34.46526 136.58886 33484 ft 485 kts 109°
2026-05-07 16:09 -34.48543 136.66702 33485 ft 486 kts 109°
2026-05-07 16:09 -34.50556 136.74526 33478 ft 486 kts 109°
2026-05-07 16:10 -34.52561 136.82360 33474 ft 487 kts 109°
2026-05-07 16:10 -34.54567 136.90208 33472 ft 487 kts 109°
2026-05-07 16:11 -34.56591 136.98133 33489 ft 499 kts 109°
2026-05-07 16:11 -34.58666 137.06288 33468 ft 511 kts 109°
2026-05-07 16:12 -34.60759 137.14554 33479 ft 512 kts 109°
2026-05-07 16:12 -34.62845 137.22821 33469 ft 512 kts 109°
2026-05-07 16:13 -34.64925 137.31094 33471 ft 512 kts 109°
2026-05-07 16:13 -34.67003 137.39369 33476 ft 512 kts 109°
2026-05-07 16:14 -34.69075 137.47656 33465 ft 513 kts 109°
2026-05-07 16:14 -34.71144 137.55957 33474 ft 513 kts 109°
2026-05-07 16:15 -34.73206 137.64261 33477 ft 514 kts 109°
2026-05-07 16:15 -34.75262 137.72577 33471 ft 514 kts 109°
2026-05-07 16:16 -34.77317 137.80896 33458 ft 514 kts 109°
2026-05-07 16:16 -34.79366 137.89218 33455 ft 508 kts 109°
2026-05-07 16:16 -34.80348 137.93229 33474 ft 496 kts 109°
2026-05-07 16:17 -34.81327 137.97230 33455 ft 491 kts 109°
2026-05-07 16:17 -34.83516 138.05067 33461 ft 488 kts 114°
2026-05-07 16:18 -34.86149 138.12673 33455 ft 487 kts 116°
2026-05-07 16:18 -34.88878 138.20226 33473 ft 487 kts 116°
2026-05-07 16:19 -34.91601 138.27791 33456 ft 487 kts 116°
2026-05-07 16:19 -34.93866 138.34138 33454 ft 488 kts 116°
2026-05-07 16:20 -34.96993 138.42955 33454 ft 488 kts 116°
2026-05-07 16:20 -34.99241 138.49314 33454 ft 488 kts 116°
2026-05-07 16:21 -35.01922 138.56913 33455 ft 488 kts 116°
2026-05-07 16:21 -35.04600 138.64515 33454 ft 488 kts 116°
2026-05-07 16:22 -35.07271 138.72119 33454 ft 488 kts 116°
2026-05-07 16:22 -35.09922 138.79684 33454 ft 488 kts 116°
2026-05-07 16:23 -35.12586 138.87305 33459 ft 488 kts 116°
2026-05-07 16:23 -35.15244 138.94928 33443 ft 488 kts 116°
2026-05-07 16:24 -35.17916 139.02609 33438 ft 488 kts 116°
2026-05-07 16:24 -35.20547 139.10192 33444 ft 488 kts 116°
2026-05-07 16:25 -35.23193 139.17831 33439 ft 488 kts 116°
2026-05-07 16:25 -35.25838 139.25490 33442 ft 488 kts 116°
2026-05-07 16:26 -35.28475 139.33148 33438 ft 489 kts 116°
2026-05-07 16:26 -35.31109 139.40815 33430 ft 489 kts 115°
2026-05-07 16:27 -35.33738 139.48487 33428 ft 489 kts 115°
2026-05-07 16:27 -35.36363 139.56164 33426 ft 489 kts 116°
2026-05-07 16:28 -35.38985 139.63853 33425 ft 489 kts 115°
2026-05-07 16:28 -35.41603 139.71547 33422 ft 489 kts 115°
2026-05-07 16:29 -35.44217 139.79253 33417 ft 490 kts 116°
2026-05-07 16:29 -35.46830 139.86972 33420 ft 490 kts 115°
2026-05-07 16:30 -35.49438 139.94696 33418 ft 490 kts 115°
2026-05-07 16:30 -35.52044 140.02436 33415 ft 491 kts 116°
2026-05-07 16:31 -35.54646 140.10180 33411 ft 491 kts 116°
2026-05-07 16:31 -35.57242 140.17929 33409 ft 491 kts 115°
2026-05-07 16:32 -35.59835 140.25690 33405 ft 491 kts 116°
2026-05-07 16:32 -35.62425 140.33459 33400 ft 491 kts 116°
2026-05-07 16:33 -35.65010 140.41232 33401 ft 491 kts 116°
2026-05-07 16:33 -35.67591 140.49017 33401 ft 492 kts 116°
2026-05-07 16:34 -35.70168 140.56808 33398 ft 492 kts 116°
2026-05-07 16:34 -35.72745 140.64617 33392 ft 492 kts 116°
2026-05-07 16:35 -35.75315 140.72430 33389 ft 493 kts 116°
2026-05-07 16:35 -35.77883 140.80254 33387 ft 493 kts 116°
2026-05-07 16:36 -35.80446 140.88086 33400 ft 493 kts 116°
2026-05-07 16:36 -35.83007 140.95935 33319 ft 496 kts 116°
2026-05-07 16:37 -35.85586 141.03845 33064 ft 497 kts 116°
2026-05-07 16:37 -35.86869 141.07796 32879 ft 496 kts 116°
2026-05-07 16:37 -35.88148 141.11740 32709 ft 495 kts 116°
2026-05-07 16:37 -35.89422 141.15676 32529 ft 494 kts 116°
2026-05-07 16:38 -35.90695 141.19611 32342 ft 493 kts 116°
2026-05-07 16:38 -35.91961 141.23529 32171 ft 491 kts 116°
2026-05-07 16:38 -35.93222 141.27436 31982 ft 490 kts 116°
2026-05-07 16:38 -35.94478 141.31331 31808 ft 488 kts 116°
2026-05-07 16:39 -35.95728 141.35217 31643 ft 486 kts 116°
2026-05-07 16:39 -35.96972 141.39088 31476 ft 484 kts 116°
2026-05-07 16:39 -35.98208 141.42940 31295 ft 482 kts 116°
2026-05-07 16:39 -35.99439 141.46778 31127 ft 480 kts 116°
2026-05-07 16:40 -36.00663 141.50600 30951 ft 478 kts 116°
2026-05-07 16:40 -36.01882 141.54412 30768 ft 476 kts 116°
2026-05-07 16:40 -36.03094 141.58203 30531 ft 474 kts 116°
2026-05-07 16:40 -36.04299 141.61981 30266 ft 472 kts 116°
2026-05-07 16:41 -36.05498 141.65745 29982 ft 470 kts 116°
2026-05-07 16:41 -36.06675 141.69443 29693 ft 467 kts 116°
2026-05-07 16:41 -36.07860 141.73171 29419 ft 465 kts 116°
2026-05-07 16:41 -36.09040 141.76886 29154 ft 463 kts 116°
2026-05-07 16:42 -36.10213 141.80587 28882 ft 461 kts 116°
2026-05-07 16:42 -36.11377 141.84266 28613 ft 458 kts 116°
2026-05-07 16:42 -36.12533 141.87925 28349 ft 455 kts 116°
2026-05-07 16:42 -36.13683 141.91567 28080 ft 453 kts 116°
2026-05-07 16:43 -36.14826 141.95192 27796 ft 452 kts 116°
2026-05-07 16:43 -36.15964 141.98803 27509 ft 450 kts 116°
2026-05-07 16:43 -36.17098 142.02405 27223 ft 448 kts 116°
2026-05-07 16:43 -36.18225 142.05992 26975 ft 447 kts 116°
2026-05-07 16:44 -36.19348 142.09571 26710 ft 445 kts 116°
2026-05-07 16:44 -36.20468 142.13142 26455 ft 444 kts 116°
2026-05-07 16:44 -36.21582 142.16700 26209 ft 443 kts 116°
2026-05-07 16:44 -36.22692 142.20250 25953 ft 441 kts 116°
2026-05-07 16:45 -36.23798 142.23792 25702 ft 440 kts 116°
2026-05-07 16:45 -36.24900 142.27322 25451 ft 439 kts 116°
2026-05-07 16:45 -36.25997 142.30848 25256 ft 438 kts 116°
2026-05-07 16:45 -36.27089 142.34362 25008 ft 437 kts 116°
2026-05-07 16:46 -36.28181 142.37873 24766 ft 436 kts 116°
2026-05-07 16:46 -36.29268 142.41374 24542 ft 435 kts 116°
2026-05-07 16:46 -36.30351 142.44867 24305 ft 434 kts 116°
2026-05-07 16:46 -36.31431 142.48354 24067 ft 433 kts 116°
2026-05-07 16:47 -36.32507 142.51833 23826 ft 432 kts 116°
2026-05-07 16:47 -36.33580 142.55308 23570 ft 430 kts 116°
2026-05-07 16:47 -36.34645 142.58760 23295 ft 428 kts 116°
2026-05-07 16:47 -36.35704 142.62200 23019 ft 426 kts 116°
2026-05-07 16:48 -36.36759 142.65629 22760 ft 424 kts 116°
2026-05-07 16:48 -36.37808 142.69043 22494 ft 423 kts 116°
2026-05-07 16:48 -36.38853 142.72448 22242 ft 421 kts 116°
2026-05-07 16:48 -36.39894 142.75840 21975 ft 420 kts 116°
2026-05-07 16:49 -36.40929 142.79219 21735 ft 418 kts 116°
2026-05-07 16:49 -36.41956 142.82579 21476 ft 416 kts 116°
2026-05-07 16:49 -36.42979 142.85929 21220 ft 414 kts 116°
2026-05-07 16:49 -36.44008 142.89262 20967 ft 412 kts 117°
2026-05-07 16:50 -36.45136 142.92520 20719 ft 408 kts 121°
2026-05-07 16:50 -36.46373 142.95681 20463 ft 407 kts 122°
2026-05-07 16:50 -36.47626 142.98825 20234 ft 405 kts 122°
2026-05-07 16:50 -36.48884 143.01952 20027 ft 404 kts 122°
2026-05-07 16:51 -36.50143 143.05065 19812 ft 403 kts 122°
2026-05-07 16:51 -36.51402 143.08170 19591 ft 402 kts 122°
2026-05-07 16:51 -36.52659 143.11267 19384 ft 401 kts 123°
2026-05-07 16:51 -36.53913 143.14357 19162 ft 400 kts 123°
2026-05-07 16:52 -36.55148 143.17399 18952 ft 399 kts 123°
2026-05-07 16:52 -36.56395 143.20475 18746 ft 398 kts 123°
2026-05-07 16:52 -36.57639 143.23545 18521 ft 397 kts 123°
2026-05-07 16:52 -36.58878 143.26608 18293 ft 396 kts 123°
2026-05-07 16:53 -36.60115 143.29666 18053 ft 395 kts 123°
2026-05-07 16:53 -36.61348 143.32717 17817 ft 394 kts 123°
2026-05-07 16:53 -36.62577 143.35760 17572 ft 393 kts 123°
2026-05-07 16:53 -36.63800 143.38794 17332 ft 391 kts 123°
2026-05-07 16:54 -36.65019 143.41821 17106 ft 390 kts 123°
2026-05-07 16:54 -36.66233 143.44835 16879 ft 389 kts 123°
2026-05-07 16:54 -36.67441 143.47839 16639 ft 387 kts 123°
2026-05-07 16:54 -36.68644 143.50835 16431 ft 386 kts 123°
2026-05-07 16:55 -36.69843 143.53822 16215 ft 385 kts 123°
2026-05-07 16:55 -36.71041 143.56807 15974 ft 384 kts 123°
2026-05-07 16:55 -36.72231 143.59779 15759 ft 383 kts 123°
2026-05-07 16:55 -36.73418 143.62745 15538 ft 382 kts 123°
2026-05-07 16:56 -36.74601 143.65702 15302 ft 380 kts 123°
2026-05-07 16:56 -36.75779 143.68650 15091 ft 379 kts 123°
2026-05-07 16:56 -36.78121 143.74521 14650 ft 377 kts 123°
2026-05-07 16:57 -36.79284 143.77441 14466 ft 375 kts 123°
2026-05-07 16:57 -36.80442 143.80352 14241 ft 374 kts 123°
2026-05-07 16:57 -36.81596 143.83251 14029 ft 373 kts 123°
2026-05-07 16:57 -36.82745 143.86143 13795 ft 371 kts 123°
2026-05-07 16:58 -36.83889 143.89026 13559 ft 370 kts 123°
2026-05-07 16:58 -36.85029 143.91901 13324 ft 369 kts 123°
2026-05-07 16:58 -36.86165 143.94767 13087 ft 367 kts 123°
2026-05-07 16:58 -36.87295 143.97623 12860 ft 366 kts 123°
2026-05-07 16:59 -36.88421 144.00468 12631 ft 365 kts 123°
2026-05-07 16:59 -36.89542 144.03305 12408 ft 364 kts 123°
2026-05-07 16:59 -36.90644 144.06096 12166 ft 362 kts 123°
2026-05-07 16:59 -36.91755 144.08913 11949 ft 361 kts 123°
2026-05-07 17:00 -36.92863 144.11724 11739 ft 360 kts 123°
2026-05-07 17:00 -36.93967 144.14527 11574 ft 359 kts 123°
2026-05-07 17:00 -36.95068 144.17324 11394 ft 358 kts 123°
2026-05-07 17:00 -36.96149 144.20083 11232 ft 347 kts 123°
2026-05-07 17:01 -36.97184 144.22737 11049 ft 332 kts 124°
2026-05-07 17:01 -36.98176 144.25280 10887 ft 319 kts 124°
2026-05-07 17:01 -36.99129 144.27724 10714 ft 306 kts 125°
2026-05-07 17:01 -37.00049 144.30074 10546 ft 296 kts 126°
2026-05-07 17:02 -37.00954 144.32372 10381 ft 293 kts 126°
2026-05-07 17:02 -37.01854 144.34655 10201 ft 292 kts 126°
2026-05-07 17:02 -37.02751 144.36936 10016 ft 292 kts 126°
2026-05-07 17:02 -37.03643 144.39212 9831 ft 291 kts 126°
2026-05-07 17:03 -37.04532 144.41483 9651 ft 290 kts 126°
2026-05-07 17:03 -37.05417 144.43752 9463 ft 290 kts 126°
2026-05-07 17:03 -37.06299 144.46014 9277 ft 289 kts 126°
2026-05-07 17:03 -37.07218 144.48241 9061 ft 284 kts 131°
2026-05-07 17:04 -37.08420 144.50131 8644 ft 273 kts 144°
2026-05-07 17:04 -37.09770 144.51748 8279 ft 266 kts 147°
2026-05-07 17:04 -37.11136 144.53290 7831 ft 264 kts 147°
2026-05-07 17:04 -37.12506 144.54810 7472 ft 263 kts 147°
2026-05-07 17:05 -37.13882 144.56321 7228 ft 263 kts 147°
2026-05-07 17:05 -37.15258 144.57826 7088 ft 262 kts 147°
2026-05-07 17:05 -37.16628 144.59327 6917 ft 262 kts 147°
2026-05-07 17:05 -37.17537 144.60321 6806 ft 261 kts 147°
2026-05-07 17:06 -37.19350 144.62303 6582 ft 261 kts 147°
2026-05-07 17:06 -37.20720 144.63798 6397 ft 261 kts 147°
2026-05-07 17:06 -37.22088 144.65296 6205 ft 261 kts 147°
2026-05-07 17:06 -37.23010 144.66315 6079 ft 262 kts 148°
2026-05-07 17:07 -37.24827 144.68309 5851 ft 262 kts 147°
2026-05-07 17:07 -37.25805 144.69220 5727 ft 257 kts 156°
2026-05-07 17:07 -37.27235 144.70603 5535 ft 259 kts 149°
2026-05-07 17:07 -37.28587 144.72034 5358 ft 249 kts 148°
2026-05-07 17:08 -37.29864 144.73440 5213 ft 240 kts 147°
2026-05-07 17:08 -37.31111 144.74848 5217 ft 242 kts 147°
2026-05-07 17:08 -37.32386 144.76162 5208 ft 237 kts 155°
2026-05-07 17:08 -37.33831 144.77138 5211 ft 229 kts 166°
2026-05-07 17:09 -37.35320 144.77794 5209 ft 224 kts 173°
2026-05-07 17:09 -37.36825 144.78222 5211 ft 220 kts 177°
2026-05-07 17:09 -37.38335 144.78483 5189 ft 219 kts 180°
2026-05-07 17:09 -37.39809 144.78730 5183 ft 210 kts 179°
2026-05-07 17:10 -37.41196 144.78994 5169 ft 194 kts 179°
2026-05-07 17:10 -37.42490 144.79244 5106 ft 178 kts 181°
2026-05-07 17:10 -37.43673 144.79463 4922 ft 169 kts 181°
2026-05-07 17:10 -37.44804 144.79669 4657 ft 165 kts 181°
2026-05-07 17:11 -37.45943 144.79880 4355 ft 162 kts 181°
2026-05-07 17:11 -37.47049 144.80087 4112 ft 159 kts 182°
2026-05-07 17:11 -37.48099 144.80284 3890 ft 151 kts 182°
2026-05-07 17:11 -37.49111 144.80473 3688 ft 143 kts 184°
2026-05-07 17:12 -37.50061 144.80650 3520 ft 135 kts 183°
2026-05-07 17:12 -37.50991 144.80820 3328 ft 134 kts 183°
2026-05-07 17:12 -37.51911 144.80991 3151 ft 134 kts 184°
2026-05-07 17:12 -37.52837 144.81162 2965 ft 135 kts 183°
2026-05-07 17:13 -37.53766 144.81337 2795 ft 134 kts 185°
2026-05-07 17:13 -37.54676 144.81508 2586 ft 131 kts 185°
2026-05-07 17:13 -37.55582 144.81675 2423 ft 132 kts 185°
2026-05-07 17:13 -37.56501 144.81844 2248 ft 135 kts 184°
2026-05-07 17:14 -37.57441 144.82018 2074 ft 137 kts 184°
2026-05-07 17:14 -37.58391 144.82190 1868 ft 138 kts 184°
2026-05-07 17:14 -37.59340 144.82374 1674 ft 137 kts 182°
2026-05-07 17:14 -37.60300 144.82552 1465 ft 141 kts 180°
2026-05-07 17:15 -37.61278 144.82726 1290 ft 143 kts 178°
2026-05-07 17:15 -37.62286 144.82919 1090 ft 151 kts 175°
2026-05-07 17:15 -37.63328 144.83137 869 ft 151 kts 167°
2026-05-07 17:15 -37.64400 144.83329 640 ft 156 kts 168°
2026-05-07 17:16 -37.65450 144.83531 468 ft 148 kts 163°
2026-05-07 17:16 -37.66388 144.83696 401 ft 121 kts 173°
2026-05-07 17:16 -37.67089 144.83824 385 ft 82 kts 172°
2026-05-07 17:16 -37.67545 144.83906 370 ft 42 kts 171°
2026-05-07 17:17 -37.67795 144.83965 363 ft 12 kts 158°
2026-05-07 17:17 -37.67857 144.84048 364 ft 15 kts 110°
2026-05-07 17:17 -37.67861 144.84197 358 ft 19 kts 84°
2026-05-07 17:17 -37.67841 144.84373 364 ft 22 kts 81°
2026-05-07 17:18 -37.67818 144.84556 360 ft 15 kts 82°
2026-05-07 17:18 -37.67821 144.84685 355 ft 0 kts 103°